2016 Cux-Wetter.de -Die Nutzung der Wetterdaten nur mit ausdrcklicher Genehmigung
Wetterdaten: Dienstag, 16.07.2019
Datum Zeit Temp. A. Feuchte A. Luftdruck Regen Wind Richtung Richtung Sonnenschein Solar Taupunkt Windchill Windben
16.07.2019 00:00 14,9 C 84 % 1015,0 hPa 0,0 l/m 11,9 km/h (2 Bft) SW 235 0 min 0 W/m 12,2 C 12,2 C 25,7 km/h (4 Bft)
16.07.2019 00:03 14,9 C 84 % 1015,0 hPa 0,0 l/m 12,0 km/h (2 Bft) W-NW 287 0 min 0 W/m 12,2 C 12,2 C 24,1 km/h (4 Bft)
16.07.2019 00:06 14,9 C 84 % 1015,0 hPa 0,0 l/m 7,7 km/h (2 Bft) W 277 0 min 0 W/m 12,2 C 14,2 C 17,7 km/h (3 Bft)
16.07.2019 00:09 14,9 C 84 % 1014,9 hPa 0,0 l/m 8,2 km/h (2 Bft) W-NW 285 0 min 0 W/m 12,2 C 13,9 C 16,1 km/h (3 Bft)
16.07.2019 00:12 14,9 C 84 % 1015,0 hPa 0,0 l/m 10,6 km/h (2 Bft) NW 312 0 min 0 W/m 12,2 C 12,7 C 20,9 km/h (4 Bft)
16.07.2019 00:15 14,9 C 84 % 1015,0 hPa 0,0 l/m 11,8 km/h (2 Bft) W-SW 257 0 min 0 W/m 12,2 C 12,2 C 20,9 km/h (4 Bft)
16.07.2019 00:18 14,9 C 84 % 1015,0 hPa 0,0 l/m 9,4 km/h (2 Bft) N-NW 342 0 min 0 W/m 12,2 C 13,3 C 16,1 km/h (3 Bft)
16.07.2019 00:21 14,9 C 84 % 1014,9 hPa 0,0 l/m 13,0 km/h (3 Bft) N 360 0 min 0 W/m 12,2 C 11,8 C 27,4 km/h (5 Bft)
16.07.2019 00:24 14,9 C 84 % 1014,9 hPa 0,0 l/m 12,0 km/h (2 Bft) W 267 0 min 0 W/m 12,2 C 12,2 C 20,9 km/h (4 Bft)
16.07.2019 00:27 14,9 C 84 % 1014,9 hPa 0,0 l/m 9,2 km/h (2 Bft) W 272 0 min 0 W/m 12,2 C 13,4 C 25,7 km/h (4 Bft)
16.07.2019 00:30 14,9 C 84 % 1014,9 hPa 0,0 l/m 10,8 km/h (2 Bft) W 277 0 min 0 W/m 12,2 C 12,7 C 20,9 km/h (4 Bft)
16.07.2019 00:33 14,9 C 84 % 1014,9 hPa 0,0 l/m 10,1 km/h (2 Bft) W-NW 290 0 min 0 W/m 12,2 C 13,0 C 19,3 km/h (3 Bft)
16.07.2019 00:36 14,9 C 84 % 1014,9 hPa 0,0 l/m 9,3 km/h (2 Bft) SW 232 0 min 0 W/m 12,2 C 13,3 C 17,7 km/h (3 Bft)
16.07.2019 00:39 14,9 C 84 % 1015,0 hPa 0,0 l/m 10,7 km/h (2 Bft) NW 306 0 min 0 W/m 12,2 C 12,7 C 19,3 km/h (3 Bft)
16.07.2019 00:42 14,8 C 83 % 1014,9 hPa 0,0 l/m 12,8 km/h (3 Bft) N-NW 340 0 min 0 W/m 11,9 C 11,7 C 20,9 km/h (4 Bft)
16.07.2019 00:45 14,8 C 83 % 1014,9 hPa 0,0 l/m 8,9 km/h (2 Bft) W-NW 302 0 min 0 W/m 11,9 C 13,4 C 19,3 km/h (3 Bft)
16.07.2019 00:48 14,9 C 84 % 1014,9 hPa 0,0 l/m 8,5 km/h (2 Bft) W 259 0 min 0 W/m 12,2 C 13,7 C 17,7 km/h (3 Bft)
16.07.2019 00:51 14,9 C 84 % 1014,9 hPa 0,0 l/m 8,1 km/h (2 Bft) W-NW 282 0 min 0 W/m 12,2 C 13,9 C 16,1 km/h (3 Bft)
16.07.2019 00:54 15,0 C 84 % 1014,9 hPa 0,0 l/m 9,1 km/h (2 Bft) W-NW 284 0 min 0 W/m 12,3 C 13,5 C 24,1 km/h (4 Bft)
16.07.2019 00:57 15,0 C 84 % 1014,9 hPa 0,0 l/m 8,4 km/h (2 Bft) W 265 0 min 0 W/m 12,3 C 13,9 C 19,3 km/h (3 Bft)
16.07.2019 01:00 15,1 C 84 % 1014,9 hPa 0,0 l/m 9,6 km/h (2 Bft) W-NW 286 0 min 0 W/m 12,4 C 13,4 C 22,5 km/h (4 Bft)
16.07.2019 01:03 15,1 C 84 % 1014,8 hPa 0,0 l/m 8,9 km/h (2 Bft) W-SW 243 0 min 0 W/m 12,4 C 13,7 C 16,1 km/h (3 Bft)
16.07.2019 01:06 15,0 C 84 % 1014,9 hPa 0,0 l/m 11,2 km/h (2 Bft) W-SW 248 0 min 0 W/m 12,3 C 12,6 C 19,3 km/h (3 Bft)
16.07.2019 01:09 15,0 C 84 % 1014,9 hPa 0,0 l/m 11,5 km/h (2 Bft) W 266 0 min 0 W/m 12,3 C 12,5 C 29,0 km/h (5 Bft)
16.07.2019 01:12 15,0 C 84 % 1014,9 hPa 0,0 l/m 9,6 km/h (2 Bft) W 279 0 min 0 W/m 12,3 C 13,3 C 19,3 km/h (3 Bft)
16.07.2019 01:15 15,0 C 84 % 1014,9 hPa 0,0 l/m 12,0 km/h (2 Bft) NW 326 0 min 0 W/m 12,3 C 12,3 C 29,0 km/h (5 Bft)
16.07.2019 01:18 15,0 C 85 % 1014,9 hPa 0,0 l/m 8,8 km/h (2 Bft) N 11 0 min 0 W/m 12,5 C 13,7 C 17,7 km/h (3 Bft)
16.07.2019 01:21 15,0 C 85 % 1014,9 hPa 0,0 l/m 7,2 km/h (2 Bft) W 263 0 min 0 W/m 12,5 C 14,5 C 16,1 km/h (3 Bft)
16.07.2019 01:24 14,9 C 85 % 1014,9 hPa 0,0 l/m 11,9 km/h (2 Bft) N-NW 336 0 min 0 W/m 12,4 C 12,2 C 22,5 km/h (4 Bft)
16.07.2019 01:27 14,9 C 84 % 1014,9 hPa 0,0 l/m 14,7 km/h (3 Bft) N-NW 344 0 min 0 W/m 12,2 C 11,2 C 25,7 km/h (4 Bft)
16.07.2019 01:30 14,9 C 85 % 1014,8 hPa 0,0 l/m 13,3 km/h (3 Bft) N-NW 327 0 min 0 W/m 12,4 C 11,7 C 20,9 km/h (4 Bft)
16.07.2019 01:33 14,8 C 84 % 1014,8 hPa 0,0 l/m 12,3 km/h (2 Bft) W-NW 296 0 min 0 W/m 12,1 C 11,9 C 22,5 km/h (4 Bft)
16.07.2019 01:36 14,8 C 84 % 1014,7 hPa 0,0 l/m 9,5 km/h (2 Bft) W-NW 293 0 min 0 W/m 12,1 C 13,1 C 17,7 km/h (3 Bft)
16.07.2019 01:39 14,8 C 85 % 1014,7 hPa 0,0 l/m 8,1 km/h (2 Bft) W-NW 284 0 min 0 W/m 12,3 C 13,8 C 16,1 km/h (3 Bft)
16.07.2019 01:42 14,8 C 85 % 1014,7 hPa 0,0 l/m 9,0 km/h (2 Bft) W 271 0 min 0 W/m 12,3 C 13,4 C 17,7 km/h (3 Bft)
16.07.2019 01:45 14,8 C 85 % 1014,8 hPa 0,0 l/m 7,2 km/h (2 Bft) W-NW 290 0 min 0 W/m 12,3 C 14,3 C 17,7 km/h (3 Bft)
16.07.2019 01:48 14,8 C 85 % 1014,7 hPa 0,0 l/m 11,0 km/h (2 Bft) W 275 0 min 0 W/m 12,3 C 12,5 C 22,5 km/h (4 Bft)
16.07.2019 01:51 14,9 C 85 % 1014,7 hPa 0,0 l/m 9,8 km/h (2 Bft) N-NW 329 0 min 0 W/m 12,4 C 13,1 C 22,5 km/h (4 Bft)
16.07.2019 01:54 14,9 C 85 % 1014,7 hPa 0,0 l/m 10,1 km/h (2 Bft) NW 317 0 min 0 W/m 12,4 C 13,0 C 17,7 km/h (3 Bft)
16.07.2019 01:57 14,9 C 85 % 1014,7 hPa 0,0 l/m 8,7 km/h (2 Bft) W-SW 251 0 min 0 W/m 12,4 C 13,6 C 22,5 km/h (4 Bft)
16.07.2019 02:00 14,9 C 86 % 1014,7 hPa 0,0 l/m 8,3 km/h (2 Bft) W 271 0 min 0 W/m 12,6 C 13,8 C 19,3 km/h (3 Bft)
16.07.2019 02:03 14,8 C 86 % 1014,8 hPa 0,0 l/m 8,8 km/h (2 Bft) N-NW 327 0 min 0 W/m 12,5 C 13,5 C 22,5 km/h (4 Bft)
16.07.2019 02:06 14,9 C 86 % 1014,8 hPa 0,0 l/m 9,6 km/h (2 Bft) NW 324 0 min 0 W/m 12,6 C 13,2 C 17,7 km/h (3 Bft)
16.07.2019 02:09 14,9 C 86 % 1014,8 hPa 0,0 l/m 11,0 km/h (2 Bft) W 274 0 min 0 W/m 12,6 C 12,6 C 22,5 km/h (4 Bft)
16.07.2019 02:12 14,9 C 86 % 1014,7 hPa 0,0 l/m 7,7 km/h (2 Bft) W 275 0 min 0 W/m 12,6 C 14,2 C 19,3 km/h (3 Bft)
16.07.2019 02:15 14,9 C 86 % 1014,7 hPa 0,0 l/m 7,8 km/h (2 Bft) W-SW 255 0 min 0 W/m 12,6 C 14,1 C 16,1 km/h (3 Bft)
16.07.2019 02:18 14,9 C 86 % 1014,7 hPa 0,0 l/m 7,2 km/h (2 Bft) NW 319 0 min 0 W/m 12,6 C 14,4 C 17,7 km/h (3 Bft)
16.07.2019 02:21 14,8 C 86 % 1014,7 hPa 0,0 l/m 8,7 km/h (2 Bft) N-NW 346 0 min 0 W/m 12,5 C 13,5 C 16,1 km/h (3 Bft)
16.07.2019 02:24 14,9 C 86 % 1014,8 hPa 0,0 l/m 10,5 km/h (2 Bft) NW 321 0 min 0 W/m 12,6 C 12,8 C 20,9 km/h (4 Bft)
16.07.2019 02:27 14,9 C 86 % 1014,7 hPa 0,0 l/m 9,9 km/h (2 Bft) W-SW 252 0 min 0 W/m 12,6 C 13,1 C 24,1 km/h (4 Bft)
16.07.2019 02:30 14,9 C 86 % 1014,7 hPa 0,0 l/m 9,6 km/h (2 Bft) W-NW 282 0 min 0 W/m 12,6 C 13,2 C 19,3 km/h (3 Bft)
16.07.2019 02:33 14,9 C 87 % 1014,8 hPa 0,0 l/m 8,7 km/h (2 Bft) NW 311 0 min 0 W/m 12,8 C 13,6 C 22,5 km/h (4 Bft)
16.07.2019 02:36 14,9 C 87 % 1014,7 hPa 0,0 l/m 9,0 km/h (2 Bft) W 280 0 min 0 W/m 12,8 C 13,5 C 22,5 km/h (4 Bft)
16.07.2019 02:39 14,9 C 87 % 1014,8 hPa 0,0 l/m 9,2 km/h (2 Bft) NW 322 0 min 0 W/m 12,8 C 13,4 C 22,5 km/h (4 Bft)
16.07.2019 02:42 14,9 C 87 % 1014,8 hPa 0,0 l/m 8,8 km/h (2 Bft) W 275 0 min 0 W/m 12,8 C 13,6 C 17,7 km/h (3 Bft)
16.07.2019 02:45 14,9 C 87 % 1014,8 hPa 0,0 l/m 7,1 km/h (2 Bft) W-NW 302 0 min 0 W/m 12,8 C 14,5 C 17,7 km/h (3 Bft)
16.07.2019 02:48 14,9 C 87 % 1014,7 hPa 0,0 l/m 8,5 km/h (2 Bft) W 267 0 min 0 W/m 12,8 C 13,7 C 20,9 km/h (4 Bft)
16.07.2019 02:51 14,9 C 87 % 1014,7 hPa 0,0 l/m 8,1 km/h (2 Bft) W-NW 284 0 min 0 W/m 12,8 C 13,9 C 17,7 km/h (3 Bft)
16.07.2019 02:54 14,8 C 87 % 1014,7 hPa 0,0 l/m 8,4 km/h (2 Bft) W 275 0 min 0 W/m 12,7 C 13,7 C 22,5 km/h (4 Bft)
16.07.2019 02:57 14,8 C 87 % 1014,7 hPa 0,0 l/m 10,2 km/h (2 Bft) W 273 0 min 0 W/m 12,7 C 12,8 C 16,1 km/h (3 Bft)
16.07.2019 03:00 14,8 C 88 % 1014,7 hPa 0,0 l/m 11,7 km/h (2 Bft) N-NW 327 0 min 0 W/m 12,8 C 12,2 C 22,5 km/h (4 Bft)
16.07.2019 03:03 14,8 C 88 % 1014,7 hPa 0,0 l/m 9,2 km/h (2 Bft) W 272 0 min 0 W/m 12,8 C 13,3 C 20,9 km/h (4 Bft)
16.07.2019 03:06 14,8 C 88 % 1014,6 hPa 0,0 l/m 8,4 km/h (2 Bft) W-NW 287 0 min 0 W/m 12,8 C 13,7 C 19,3 km/h (3 Bft)
16.07.2019 03:09 14,8 C 88 % 1014,6 hPa 0,0 l/m 10,3 km/h (2 Bft) W-NW 298 0 min 0 W/m 12,8 C 12,8 C 20,9 km/h (4 Bft)
16.07.2019 03:12 14,8 C 88 % 1014,7 hPa 0,0 l/m 9,7 km/h (2 Bft) NW 304 0 min 0 W/m 12,8 C 13,0 C 24,1 km/h (4 Bft)
16.07.2019 03:15 14,8 C 88 % 1014,8 hPa 0,0 l/m 9,5 km/h (2 Bft) W-NW 289 0 min 0 W/m 12,8 C 13,1 C 17,7 km/h (3 Bft)
16.07.2019 03:18 14,7 C 88 % 1014,7 hPa 0,0 l/m 9,0 km/h (2 Bft) W-SW 242 0 min 0 W/m 12,7 C 13,3 C 17,7 km/h (3 Bft)
16.07.2019 03:21 14,7 C 88 % 1014,6 hPa 0,0 l/m 7,2 km/h (2 Bft) W 261 0 min 0 W/m 12,7 C 14,2 C 14,5 km/h (3 Bft)
16.07.2019 03:24 14,7 C 88 % 1014,7 hPa 0,0 l/m 9,0 km/h (2 Bft) N-NW 338 0 min 0 W/m 12,7 C 13,3 C 22,5 km/h (4 Bft)
16.07.2019 03:27 14,7 C 88 % 1014,7 hPa 0,0 l/m 8,1 km/h (2 Bft) W 275 0 min 0 W/m 12,7 C 13,7 C 17,7 km/h (3 Bft)
16.07.2019 03:30 14,7 C 88 % 1014,6 hPa 0,0 l/m 8,3 km/h (2 Bft) W-NW 291 0 min 0 W/m 12,7 C 13,6 C 19,3 km/h (3 Bft)
16.07.2019 03:33 14,7 C 88 % 1014,6 hPa 0,0 l/m 11,1 km/h (2 Bft) W 275 0 min 0 W/m 12,7 C 12,3 C 22,5 km/h (4 Bft)
16.07.2019 03:36 14,7 C 89 % 1014,6 hPa 0,0 l/m 9,9 km/h (2 Bft) W-NW 294 0 min 0 W/m 12,9 C 12,8 C 19,3 km/h (3 Bft)
16.07.2019 03:39 14,8 C 89 % 1014,6 hPa 0,0 l/m 11,5 km/h (2 Bft) W 269 0 min 0 W/m 13,0 C 12,2 C 19,3 km/h (3 Bft)
16.07.2019 03:42 14,8 C 89 % 1014,6 hPa 0,0 l/m 9,1 km/h (2 Bft) NW 307 0 min 0 W/m 13,0 C 13,3 C 22,5 km/h (4 Bft)
16.07.2019 03:45 14,7 C 89 % 1014,6 hPa 0,0 l/m 10,6 km/h (2 Bft) W 266 0 min 0 W/m 12,9 C 12,5 C 22,5 km/h (4 Bft)
16.07.2019 03:48 14,7 C 89 % 1014,6 hPa 0,0 l/m 9,7 km/h (2 Bft) W 271 0 min 0 W/m 12,9 C 12,9 C 19,3 km/h (3 Bft)
16.07.2019 03:51 14,7 C 89 % 1014,5 hPa 0,0 l/m 6,2 km/h (2 Bft) W-NW 286 0 min 0 W/m 12,9 C 14,7 C 19,3 km/h (3 Bft)
16.07.2019 03:54 14,7 C 89 % 1014,6 hPa 0,0 l/m 15,0 km/h (3 Bft) N-NW 336 0 min 0 W/m 12,9 C 10,8 C 27,4 km/h (5 Bft)
16.07.2019 03:57 14,7 C 90 % 1014,6 hPa 0,0 l/m 11,6 km/h (2 Bft) W 265 0 min 0 W/m 13,1 C 12,1 C 25,7 km/h (4 Bft)
16.07.2019 04:00 14,6 C 90 % 1014,6 hPa 0,0 l/m 10,8 km/h (2 Bft) W 270 0 min 0 W/m 13,0 C 12,3 C 19,3 km/h (3 Bft)
16.07.2019 04:03 14,6 C 90 % 1014,5 hPa 0,0 l/m 6,3 km/h (2 Bft) W-NW 293 0 min 0 W/m 13,0 C 14,6 C 16,1 km/h (3 Bft)
16.07.2019 04:06 14,6 C 90 % 1014,5 hPa 0,0 l/m 5,3 km/h (1 Bft) W 275 0 min 0 W/m 13,0 C 14,6 C 14,5 km/h (3 Bft)
16.07.2019 04:09 14,5 C 90 % 1014,4 hPa 0,0 l/m 8,4 km/h (2 Bft) N-NW 329 0 min 0 W/m 12,9 C 13,4 C 17,7 km/h (3 Bft)
16.07.2019 04:12 14,5 C 90 % 1014,4 hPa 0,0 l/m 10,5 km/h (2 Bft) W-NW 285 0 min 0 W/m 12,9 C 12,3 C 22,5 km/h (4 Bft)
16.07.2019 04:15 14,5 C 90 % 1014,4 hPa 0,0 l/m 9,4 km/h (2 Bft) NW 305 0 min 0 W/m 12,9 C 12,9 C 19,3 km/h (3 Bft)
16.07.2019 04:18 14,4 C 90 % 1014,4 hPa 0,0 l/m 11,1 km/h (2 Bft) W-SW 252 0 min 0 W/m 12,8 C 12,0 C 19,3 km/h (3 Bft)
16.07.2019 04:21 14,3 C 90 % 1014,3 hPa 0,0 l/m 8,5 km/h (2 Bft) W 275 0 min 0 W/m 12,7 C 13,1 C 19,3 km/h (3 Bft)
16.07.2019 04:24 14,3 C 90 % 1014,3 hPa 0,0 l/m 10,4 km/h (2 Bft) N-NW 343 0 min 0 W/m 12,7 C 12,2 C 22,5 km/h (4 Bft)
16.07.2019 04:27 14,3 C 90 % 1014,3 hPa 0,0 l/m 9,0 km/h (2 Bft) W-SW 257 0 min 0 W/m 12,7 C 12,8 C 20,9 km/h (4 Bft)
16.07.2019 04:30 14,2 C 90 % 1014,3 hPa 0,0 l/m 13,4 km/h (3 Bft) W-NW 298 0 min 0 W/m 12,6 C 10,8 C 22,5 km/h (4 Bft)
16.07.2019 04:33 14,3 C 90 % 1014,3 hPa 0,0 l/m 7,7 km/h (2 Bft) W 270 0 min 0 W/m 12,7 C 13,5 C 14,5 km/h (3 Bft)
16.07.2019 04:36 14,3 C 91 % 1014,3 hPa 0,0 l/m 6,0 km/h (2 Bft) W-NW 283 0 min 0 W/m 12,8 C 14,3 C 17,7 km/h (3 Bft)
16.07.2019 04:39 14,2 C 91 % 1014,3 hPa 0,0 l/m 9,4 km/h (2 Bft) W-NW 288 0 min 0 W/m 12,8 C 12,5 C 19,3 km/h (3 Bft)
16.07.2019 04:42 14,2 C 91 % 1014,2 hPa 0,0 l/m 8,6 km/h (2 Bft) SW 216 0 min 0 W/m 12,8 C 12,9 C 17,7 km/h (3 Bft)
16.07.2019 04:45 14,3 C 91 % 1014,2 hPa 0,0 l/m 12,6 km/h (3 Bft) W 267 0 min 0 W/m 12,8 C 11,2 C 22,5 km/h (4 Bft)
16.07.2019 04:48 14,3 C 91 % 1014,2 hPa 0,0 l/m 9,5 km/h (2 Bft) W 273 0 min 0 W/m 12,8 C 12,6 C 19,3 km/h (3 Bft)
16.07.2019 04:51 14,3 C 91 % 1014,2 hPa 0,0 l/m 10,2 km/h (2 Bft) NW 304 0 min 0 W/m 12,8 C 12,3 C 22,5 km/h (4 Bft)
16.07.2019 04:54 14,3 C 91 % 1014,2 hPa 0,0 l/m 9,8 km/h (2 Bft) W-NW 291 0 min 0 W/m 12,8 C 12,4 C 19,3 km/h (3 Bft)
16.07.2019 04:57 14,3 C 91 % 1014,2 hPa 0,0 l/m 8,2 km/h (2 Bft) W-NW 294 0 min 0 W/m 12,8 C 13,3 C 20,9 km/h (4 Bft)
16.07.2019 05:00 14,3 C 91 % 1014,2 hPa 0,0 l/m 11,3 km/h (2 Bft) W 279 0 min 0 W/m 12,8 C 11,8 C 20,9 km/h (4 Bft)
16.07.2019 05:03 14,3 C 91 % 1014,2 hPa 0,0 l/m 10,8 km/h (2 Bft) W 279 0 min 0 W/m 12,8 C 12,0 C 19,3 km/h (3 Bft)
16.07.2019 05:06 14,3 C 91 % 1014,2 hPa 0,0 l/m 9,9 km/h (2 Bft) W 264 0 min 0 W/m 12,8 C 12,4 C 24,1 km/h (4 Bft)
16.07.2019 05:09 14,3 C 91 % 1014,3 hPa 0,0 l/m 9,6 km/h (2 Bft) W-NW 296 0 min 0 W/m 12,8 C 12,5 C 25,7 km/h (4 Bft)
16.07.2019 05:12 14,3 C 91 % 1014,1 hPa 0,0 l/m 8,3 km/h (2 Bft) W 276 0 min 0 W/m 12,8 C 13,2 C 19,3 km/h (3 Bft)
16.07.2019 05:15 14,3 C 91 % 1014,1 hPa 0,0 l/m 7,8 km/h (2 Bft) W 271 0 min 0 W/m 12,8 C 13,5 C 17,7 km/h (3 Bft)
16.07.2019 05:18 14,3 C 91 % 1014,1 hPa 0,0 l/m 7,8 km/h (2 Bft) W-NW 285 0 min 0 W/m 12,8 C 13,5 C 17,7 km/h (3 Bft)
16.07.2019 05:21 14,3 C 91 % 1014,1 hPa 0,0 l/m 10,1 km/h (2 Bft) W 273 0 min 0 W/m 12,8 C 12,3 C 20,9 km/h (4 Bft)
16.07.2019 05:24 14,3 C 91 % 1014,2 hPa 0,0 l/m 14,1 km/h (3 Bft) W 265 0 min 0 W/m 12,8 C 10,7 C 25,7 km/h (4 Bft)
16.07.2019 05:27 14,4 C 91 % 1014,2 hPa 0,0 l/m 12,4 km/h (2 Bft) NW 309 0 min 0 W/m 12,9 C 11,4 C 25,7 km/h (4 Bft)
16.07.2019 05:30 14,4 C 91 % 1014,1 hPa 0,0 l/m 8,8 km/h (2 Bft) W-SW 258 0 min 5 W/m 12,9 C 13,0 C 16,1 km/h (3 Bft)
16.07.2019 05:33 14,4 C 91 % 1014,1 hPa 0,0 l/m 7,3 km/h (2 Bft) W-NW 292 0 min 7 W/m 12,9 C 13,9 C 16,1 km/h (3 Bft)
16.07.2019 05:36 14,4 C 91 % 1014,1 hPa 0,0 l/m 7,5 km/h (2 Bft) N-NW 331 0 min 7 W/m 12,9 C 13,8 C 17,7 km/h (3 Bft)
16.07.2019 05:39 14,4 C 91 % 1014,1 hPa 0,0 l/m 9,9 km/h (2 Bft) W-NW 298 0 min 9 W/m 12,9 C 12,5 C 20,9 km/h (4 Bft)
16.07.2019 05:42 14,3 C 91 % 1014,1 hPa 0,0 l/m 8,2 km/h (2 Bft) W 266 0 min 11 W/m 12,8 C 13,3 C 19,3 km/h (3 Bft)
16.07.2019 05:45 14,4 C 92 % 1014,2 hPa 0,0 l/m 9,1 km/h (2 Bft) W 275 0 min 12 W/m 13,1 C 12,9 C 19,3 km/h (3 Bft)
16.07.2019 05:48 14,4 C 92 % 1014,1 hPa 0,0 l/m 11,2 km/h (2 Bft) W-NW 288 0 min 7 W/m 13,1 C 11,9 C 19,3 km/h (3 Bft)
16.07.2019 05:51 14,4 C 92 % 1014,2 hPa 0,0 l/m 12,3 km/h (2 Bft) W 265 0 min 5 W/m 13,1 C 11,5 C 20,9 km/h (4 Bft)
16.07.2019 05:54 14,4 C 92 % 1014,1 hPa 0,0 l/m 12,9 km/h (3 Bft) W-NW 290 0 min 9 W/m 13,1 C 11,2 C 20,9 km/h (4 Bft)
16.07.2019 05:57 14,4 C 92 % 1014,1 hPa 0,0 l/m 8,7 km/h (2 Bft) W 275 0 min 11 W/m 13,1 C 13,1 C 19,3 km/h (3 Bft)
16.07.2019 06:00 14,4 C 92 % 1014,2 hPa 0,0 l/m 8,6 km/h (2 Bft) W 275 0 min 14 W/m 13,1 C 13,1 C 17,7 km/h (3 Bft)
16.07.2019 06:03 14,5 C 92 % 1014,2 hPa 0,0 l/m 10,7 km/h (2 Bft) W-NW 284 0 min 14 W/m 13,2 C 12,2 C 25,7 km/h (4 Bft)
16.07.2019 06:06 14,4 C 92 % 1014,2 hPa 0,0 l/m 11,3 km/h (2 Bft) W 274 0 min 12 W/m 13,1 C 11,9 C 22,5 km/h (4 Bft)
16.07.2019 06:09 14,4 C 92 % 1014,2 hPa 0,0 l/m 11,1 km/h (2 Bft) N-NW 330 0 min 18 W/m 13,1 C 12,0 C 19,3 km/h (3 Bft)
16.07.2019 06:12 14,4 C 92 % 1014,2 hPa 0,0 l/m 9,6 km/h (2 Bft) W 275 0 min 21 W/m 13,1 C 12,6 C 22,5 km/h (4 Bft)
16.07.2019 06:15 14,4 C 92 % 1014,2 hPa 0,0 l/m 10,2 km/h (2 Bft) W-SW 252 0 min 21 W/m 13,1 C 12,4 C 27,4 km/h (5 Bft)
16.07.2019 06:18 14,4 C 92 % 1014,1 hPa 0,0 l/m 8,9 km/h (2 Bft) W-NW 290 0 min 21 W/m 13,1 C 13,0 C 17,7 km/h (3 Bft)
16.07.2019 06:21 14,4 C 92 % 1014,1 hPa 0,0 l/m 11,1 km/h (2 Bft) W 277 0 min 19 W/m 13,1 C 12,0 C 17,7 km/h (3 Bft)
16.07.2019 06:24 14,4 C 92 % 1014,0 hPa 0,0 l/m 7,7 km/h (2 Bft) W 259 0 min 23 W/m 13,1 C 13,6 C 19,3 km/h (3 Bft)
16.07.2019 06:27 14,4 C 92 % 1014,0 hPa 0,0 l/m 8,9 km/h (2 Bft) W 270 0 min 35 W/m 13,1 C 13,0 C 17,7 km/h (3 Bft)
16.07.2019 06:30 14,4 C 92 % 1013,9 hPa 0,0 l/m 9,4 km/h (2 Bft) W 267 0 min 30 W/m 13,1 C 12,7 C 19,3 km/h (3 Bft)
16.07.2019 06:33 14,4 C 92 % 1013,9 hPa 0,0 l/m 6,3 km/h (2 Bft) W-NW 291 0 min 26 W/m 13,1 C 14,4 C 12,9 km/h (3 Bft)
16.07.2019 06:36 14,4 C 92 % 1014,0 hPa 0,0 l/m 7,8 km/h (2 Bft) W-NW 285 0 min 18 W/m 13,1 C 13,6 C 14,5 km/h (3 Bft)
16.07.2019 06:39 14,4 C 93 % 1013,9 hPa 0,0 l/m 9,8 km/h (2 Bft) W 263 0 min 21 W/m 13,3 C 12,5 C 19,3 km/h (3 Bft)
16.07.2019 06:42 14,4 C 92 % 1013,9 hPa 0,0 l/m 9,3 km/h (2 Bft) W 268 0 min 30 W/m 13,1 C 12,8 C 20,9 km/h (4 Bft)
16.07.2019 06:45 14,4 C 93 % 1013,9 hPa 0,0 l/m 9,6 km/h (2 Bft) W 280 0 min 39 W/m 13,3 C 12,6 C 17,7 km/h (3 Bft)
16.07.2019 06:48 14,4 C 93 % 1013,9 hPa 0,0 l/m 8,6 km/h (2 Bft) W-NW 287 0 min 46 W/m 13,3 C 13,1 C 19,3 km/h (3 Bft)
16.07.2019 06:51 14,4 C 93 % 1014,0 hPa 0,0 l/m 9,6 km/h (2 Bft) W-NW 286 0 min 37 W/m 13,3 C 12,6 C 19,3 km/h (3 Bft)
16.07.2019 06:54 14,4 C 93 % 1014,0 hPa 0,0 l/m 10,2 km/h (2 Bft) W 259 0 min 39 W/m 13,3 C 12,4 C 17,7 km/h (3 Bft)
16.07.2019 06:57 14,4 C 93 % 1014,0 hPa 0,0 l/m 6,5 km/h (2 Bft) W-NW 299 0 min 33 W/m 13,3 C 14,4 C 16,1 km/h (3 Bft)
16.07.2019 07:00 14,4 C 93 % 1014,0 hPa 0,0 l/m 9,6 km/h (2 Bft) W 276 0 min 42 W/m 13,3 C 12,6 C 20,9 km/h (4 Bft)
16.07.2019 07:03 14,4 C 93 % 1014,0 hPa 0,0 l/m 13,1 km/h (3 Bft) W 263 0 min 42 W/m 13,3 C 11,1 C 24,1 km/h (4 Bft)
16.07.2019 07:06 14,4 C 93 % 1014,0 hPa 0,0 l/m 14,6 km/h (3 Bft) W-NW 303 0 min 46 W/m 13,3 C 10,6 C 22,5 km/h (4 Bft)
16.07.2019 07:09 14,4 C 93 % 1014,0 hPa 0,0 l/m 8,1 km/h (2 Bft) W-NW 301 0 min 58 W/m 13,3 C 13,4 C 17,7 km/h (3 Bft)
16.07.2019 07:12 14,4 C 93 % 1014,0 hPa 0,0 l/m 8,7 km/h (2 Bft) W 265 0 min 53 W/m 13,3 C 13,1 C 19,3 km/h (3 Bft)
16.07.2019 07:15 14,4 C 93 % 1014,1 hPa 0,0 l/m 12,3 km/h (2 Bft) W-NW 291 0 min 47 W/m 13,3 C 11,5 C 20,9 km/h (4 Bft)
16.07.2019 07:18 14,4 C 93 % 1014,1 hPa 0,0 l/m 10,8 km/h (2 Bft) W-NW 295 0 min 49 W/m 13,3 C 12,1 C 17,7 km/h (3 Bft)
16.07.2019 07:21 14,4 C 93 % 1014,1 hPa 0,0 l/m 9,9 km/h (2 Bft) W-NW 298 0 min 69 W/m 13,3 C 12,5 C 22,5 km/h (4 Bft)
16.07.2019 07:24 14,4 C 93 % 1014,1 hPa 0,0 l/m 9,3 km/h (2 Bft) W-NW 296 0 min 63 W/m 13,3 C 12,8 C 17,7 km/h (3 Bft)
16.07.2019 07:27 14,4 C 93 % 1014,0 hPa 0,0 l/m 9,2 km/h (2 Bft) W-NW 285 0 min 69 W/m 13,3 C 12,8 C 22,5 km/h (4 Bft)
16.07.2019 07:30 14,4 C 93 % 1014,0 hPa 0,0 l/m 6,0 km/h (2 Bft) NW 314 0 min 74 W/m 13,3 C 14,4 C 11,3 km/h (2 Bft)
16.07.2019 07:33 14,5 C 94 % 1013,9 hPa 0,0 l/m 8,4 km/h (2 Bft) NW 305 0 min 74 W/m 13,5 C 13,4 C 17,7 km/h (3 Bft)
16.07.2019 07:36 14,6 C 94 % 1013,9 hPa 0,0 l/m 11,7 km/h (2 Bft) W 281 0 min 56 W/m 13,6 C 11,9 C 20,9 km/h (4 Bft)
16.07.2019 07:39 14,5 C 93 % 1013,9 hPa 0,0 l/m 9,8 km/h (2 Bft) W-NW 286 0 min 58 W/m 13,4 C 12,7 C 17,7 km/h (3 Bft)
16.07.2019 07:42 14,5 C 94 % 1014,0 hPa 0,0 l/m 10,5 km/h (2 Bft) W-NW 283 0 min 65 W/m 13,5 C 12,3 C 20,9 km/h (4 Bft)
16.07.2019 07:45 14,5 C 94 % 1013,9 hPa 0,0 l/m 11,5 km/h (2 Bft) W-NW 296 0 min 98 W/m 13,5 C 11,9 C 19,3 km/h (3 Bft)
16.07.2019 07:48 14,5 C 94 % 1013,9 hPa 0,0 l/m 8,2 km/h (2 Bft) N-NW 332 0 min 102 W/m 13,5 C 13,5 C 17,7 km/h (3 Bft)
16.07.2019 07:51 14,6 C 94 % 1013,9 hPa 0,0 l/m 11,5 km/h (2 Bft) N-NW 330 0 min 105 W/m 13,6 C 12,0 C 19,3 km/h (3 Bft)
16.07.2019 07:54 14,6 C 93 % 1013,9 hPa 0,0 l/m 11,0 km/h (2 Bft) N 360 0 min 62 W/m 13,5 C 12,2 C 20,9 km/h (4 Bft)
16.07.2019 07:57 14,6 C 93 % 1014,0 hPa 0,0 l/m 10,4 km/h (2 Bft) NW 305 0 min 72 W/m 13,5 C 12,5 C 19,3 km/h (3 Bft)
16.07.2019 08:00 14,7 C 93 % 1014,0 hPa 0,0 l/m 7,6 km/h (2 Bft) W-NW 299 0 min 83 W/m 13,6 C 14,0 C 17,7 km/h (3 Bft)
16.07.2019 08:03 14,7 C 94 % 1014,0 hPa 0,0 l/m 6,6 km/h (2 Bft) W 273 0 min 90 W/m 13,7 C 14,6 C 14,5 km/h (3 Bft)
16.07.2019 08:06 14,8 C 93 % 1014,0 hPa 0,0 l/m 10,6 km/h (2 Bft) W-SW 249 0 min 104 W/m 13,7 C 12,6 C 24,1 km/h (4 Bft)
16.07.2019 08:09 14,8 C 93 % 1014,1 hPa 0,0 l/m 13,6 km/h (3 Bft) W 263 0 min 107 W/m 13,7 C 11,4 C 24,1 km/h (4 Bft)
16.07.2019 08:12 14,8 C 93 % 1014,1 hPa 0,0 l/m 13,9 km/h (3 Bft) W-NW 286 0 min 111 W/m 13,7 C 11,3 C 29,0 km/h (5 Bft)
16.07.2019 08:15 14,8 C 93 % 1014,1 hPa 0,0 l/m 11,8 km/h (2 Bft) W-NW 282 0 min 72 W/m 13,7 C 12,1 C 27,4 km/h (5 Bft)
16.07.2019 08:18 14,8 C 93 % 1014,1 hPa 0,0 l/m 8,3 km/h (2 Bft) W-NW 298 0 min 102 W/m 13,7 C 13,7 C 19,3 km/h (3 Bft)
16.07.2019 08:21 14,9 C 93 % 1014,1 hPa 0,0 l/m 7,1 km/h (2 Bft) NW 308 0 min 160 W/m 13,8 C 14,5 C 16,1 km/h (3 Bft)
16.07.2019 08:24 15,1 C 93 % 1014,1 hPa 0,0 l/m 7,3 km/h (2 Bft) W 269 0 min 149 W/m 14,0 C 14,6 C 19,3 km/h (3 Bft)
16.07.2019 08:27 15,1 C 93 % 1014,2 hPa 0,0 l/m 8,6 km/h (2 Bft) W 267 0 min 91 W/m 14,0 C 13,9 C 24,1 km/h (4 Bft)
16.07.2019 08:30 15,1 C 93 % 1014,1 hPa 0,0 l/m 8,5 km/h (2 Bft) W 269 0 min 102 W/m 14,0 C 13,9 C 19,3 km/h (3 Bft)
16.07.2019 08:33 15,1 C 93 % 1014,2 hPa 0,0 l/m 9,0 km/h (2 Bft) W 271 0 min 86 W/m 14,0 C 13,7 C 17,7 km/h (3 Bft)
16.07.2019 08:36 15,0 C 93 % 1014,2 hPa 0,0 l/m 11,3 km/h (2 Bft) NW 324 0 min 127 W/m 13,9 C 12,6 C 20,9 km/h (4 Bft)
16.07.2019 08:39 14,9 C 92 % 1014,2 hPa 0,0 l/m 11,7 km/h (2 Bft) NW 325 0 min 165 W/m 13,6 C 12,3 C 24,1 km/h (4 Bft)
16.07.2019 08:42 14,9 C 93 % 1014,2 hPa 0,0 l/m 9,7 km/h (2 Bft) W 271 0 min 214 W/m 13,8 C 13,1 C 19,3 km/h (3 Bft)
16.07.2019 08:45 15,1 C 93 % 1014,2 hPa 0,0 l/m 10,4 km/h (2 Bft) NW 306 0 min 229 W/m 14,0 C 13,1 C 22,5 km/h (4 Bft)
16.07.2019 08:48 15,1 C 93 % 1014,3 hPa 0,0 l/m 13,6 km/h (3 Bft) N 360 0 min 183 W/m 14,0 C 11,8 C 27,4 km/h (5 Bft)
16.07.2019 08:51 15,1 C 93 % 1014,2 hPa 0,0 l/m 10,1 km/h (2 Bft) W-NW 282 0 min 160 W/m 14,0 C 13,2 C 19,3 km/h (3 Bft)
16.07.2019 08:54 15,1 C 93 % 1014,2 hPa 0,0 l/m 10,4 km/h (2 Bft) W 271 3 min 272 W/m 14,0 C 13,1 C 20,9 km/h (4 Bft)
16.07.2019 08:57 15,2 C 94 % 1014,3 hPa 0,0 l/m 12,3 km/h (2 Bft) W 265 3 min 304 W/m 14,2 C 12,4 C 24,1 km/h (4 Bft)
16.07.2019 09:00 15,2 C 94 % 1014,3 hPa 0,0 l/m 11,0 km/h (2 Bft) W-NW 298 0 min 114 W/m 14,2 C 12,9 C 22,5 km/h (4 Bft)
16.07.2019 09:03 15,1 C 93 % 1014,4 hPa 0,0 l/m 11,0 km/h (2 Bft) W-NW 298 0 min 130 W/m 14,0 C 12,8 C 22,5 km/h (4 Bft)
16.07.2019 09:06 15,1 C 94 % 1014,3 hPa 0,0 l/m 7,6 km/h (2 Bft) NW 316 0 min 185 W/m 14,1 C 14,4 C 16,1 km/h (3 Bft)
16.07.2019 09:09 15,1 C 94 % 1014,3 hPa 0,0 l/m 8,1 km/h (2 Bft) W 262 0 min 230 W/m 14,1 C 14,2 C 19,3 km/h (3 Bft)
16.07.2019 09:12 15,2 C 94 % 1014,3 hPa 0,2 l/m 11,4 km/h (2 Bft) W 274 3 min 294 W/m 14,2 C 12,7 C 19,3 km/h (3 Bft)
16.07.2019 09:15 15,2 C 94 % 1014,3 hPa 0,0 l/m 9,6 km/h (2 Bft) W 275 0 min 251 W/m 14,2 C 13,5 C 22,5 km/h (4 Bft)
16.07.2019 09:18 15,2 C 94 % 1014,3 hPa 0,0 l/m 9,5 km/h (2 Bft) W 267 0 min 206 W/m 14,2 C 13,6 C 17,7 km/h (3 Bft)
16.07.2019 09:21 15,2 C 94 % 1014,3 hPa 0,0 l/m 11,1 km/h (2 Bft) W-NW 294 0 min 229 W/m 14,2 C 12,9 C 20,9 km/h (4 Bft)
16.07.2019 09:24 15,3 C 94 % 1014,3 hPa 0,0 l/m 10,2 km/h (2 Bft) W-NW 296 3 min 334 W/m 14,3 C 13,4 C 20,9 km/h (4 Bft)
16.07.2019 09:27 15,4 C 93 % 1014,3 hPa 0,0 l/m 9,2 km/h (2 Bft) W 262 0 min 216 W/m 14,3 C 13,9 C 16,1 km/h (3 Bft)
16.07.2019 09:30 15,3 C 93 % 1014,3 hPa 0,0 l/m 10,5 km/h (2 Bft) W-SW 237 0 min 144 W/m 14,2 C 13,2 C 20,9 km/h (4 Bft)
16.07.2019 09:33 15,3 C 93 % 1014,3 hPa 0,0 l/m 8,6 km/h (2 Bft) W-NW 298 0 min 167 W/m 14,2 C 14,1 C 20,9 km/h (4 Bft)
16.07.2019 09:36 15,4 C 93 % 1014,3 hPa 0,0 l/m 9,0 km/h (2 Bft) W-NW 301 0 min 216 W/m 14,3 C 14,0 C 24,1 km/h (4 Bft)
16.07.2019 09:39 15,4 C 93 % 1014,3 hPa 0,0 l/m 7,8 km/h (2 Bft) W 281 0 min 288 W/m 14,3 C 14,6 C 19,3 km/h (3 Bft)
16.07.2019 09:42 15,6 C 93 % 1014,3 hPa 0,0 l/m 9,0 km/h (2 Bft) W-SW 257 0 min 243 W/m 14,5 C 14,2 C 16,1 km/h (3 Bft)
16.07.2019 09:45 15,7 C 93 % 1014,3 hPa 0,0 l/m 9,9 km/h (2 Bft) W 259 0 min 213 W/m 14,6 C 13,9 C 17,7 km/h (3 Bft)
16.07.2019 09:48 15,7 C 92 % 1014,4 hPa 0,0 l/m 10,0 km/h (2 Bft) W 270 0 min 176 W/m 14,4 C 13,9 C 22,5 km/h (4 Bft)
16.07.2019 09:51 15,7 C 92 % 1014,3 hPa 0,0 l/m 8,8 km/h (2 Bft) NW 305 0 min 160 W/m 14,4 C 14,4 C 24,1 km/h (4 Bft)
16.07.2019 09:54 15,6 C 92 % 1014,3 hPa 0,0 l/m 9,2 km/h (2 Bft) W-NW 282 0 min 153 W/m 14,3 C 14,1 C 17,7 km/h (3 Bft)
16.07.2019 09:57 15,4 C 92 % 1014,3 hPa 0,0 l/m 13,6 km/h (3 Bft) N-NW 329 0 min 197 W/m 14,1 C 12,1 C 24,1 km/h (4 Bft)
16.07.2019 10:00 15,4 C 92 % 1014,4 hPa 0,0 l/m 10,9 km/h (2 Bft) W-NW 283 0 min 257 W/m 14,1 C 13,2 C 20,9 km/h (4 Bft)
16.07.2019 10:03 15,6 C 92 % 1014,3 hPa 0,0 l/m 7,8 km/h (2 Bft) W 269 0 min 216 W/m 14,3 C 14,8 C 17,7 km/h (3 Bft)
16.07.2019 10:06 15,6 C 92 % 1014,3 hPa 0,0 l/m 9,7 km/h (2 Bft) N-NW 333 3 min 381 W/m 14,3 C 13,9 C 19,3 km/h (3 Bft)
16.07.2019 10:09 15,7 C 92 % 1014,3 hPa 0,0 l/m 12,6 km/h (3 Bft) N-NW 328 0 min 287 W/m 14,4 C 12,9 C 24,1 km/h (4 Bft)
16.07.2019 10:12 15,7 C 91 % 1014,3 hPa 0,0 l/m 10,9 km/h (2 Bft) W 267 0 min 258 W/m 14,2 C 13,5 C 22,5 km/h (4 Bft)
16.07.2019 10:15 15,7 C 90 % 1014,3 hPa 0,0 l/m 11,2 km/h (2 Bft) W-NW 288 0 min 165 W/m 14,1 C 13,4 C 24,1 km/h (4 Bft)
16.07.2019 10:18 15,8 C 90 % 1014,3 hPa 0,0 l/m 14,4 km/h (3 Bft) W-NW 303 0 min 227 W/m 14,2 C 12,4 C 25,7 km/h (4 Bft)
16.07.2019 10:21 15,8 C 90 % 1014,4 hPa 0,0 l/m 9,3 km/h (2 Bft) W 267 0 min 262 W/m 14,2 C 14,3 C 27,4 km/h (5 Bft)
16.07.2019 10:24 15,9 C 90 % 1014,4 hPa 0,0 l/m 9,3 km/h (2 Bft) W 271 0 min 290 W/m 14,3 C 14,4 C 22,5 km/h (4 Bft)
16.07.2019 10:27 16,1 C 89 % 1014,4 hPa 0,0 l/m 11,9 km/h (2 Bft) W 273 0 min 127 W/m 14,3 C 13,6 C 19,3 km/h (3 Bft)
16.07.2019 10:30 16,1 C 89 % 1014,4 hPa 0,0 l/m 6,7 km/h (2 Bft) NW 315 0 min 163 W/m 14,3 C 16,0 C 16,1 km/h (3 Bft)
16.07.2019 10:33 16,1 C 89 % 1014,5 hPa 0,0 l/m 9,2 km/h (2 Bft) N-NW 348 0 min 158 W/m 14,3 C 14,7 C 17,7 km/h (3 Bft)
16.07.2019 10:36 15,9 C 89 % 1014,4 hPa 0,0 l/m 7,7 km/h (2 Bft) W 278 0 min 206 W/m 14,1 C 15,2 C 17,7 km/h (3 Bft)
16.07.2019 10:39 15,9 C 89 % 1014,4 hPa 0,0 l/m 8,8 km/h (2 Bft) NW 319 0 min 141 W/m 14,1 C 14,7 C 20,9 km/h (4 Bft)
16.07.2019 10:42 15,8 C 89 % 1014,5 hPa 0,0 l/m 10,7 km/h (2 Bft) NW 306 0 min 179 W/m 14,0 C 13,7 C 22,5 km/h (4 Bft)
16.07.2019 10:45 15,8 C 89 % 1014,5 hPa 0,0 l/m 10,7 km/h (2 Bft) W 275 0 min 315 W/m 14,0 C 13,7 C 20,9 km/h (4 Bft)
16.07.2019 10:48 16,0 C 89 % 1014,5 hPa 0,0 l/m 10,4 km/h (2 Bft) W-NW 297 0 min 327 W/m 14,2 C 14,1 C 22,5 km/h (4 Bft)
16.07.2019 10:51 16,2 C 88 % 1014,5 hPa 0,0 l/m 11,7 km/h (2 Bft) W 275 0 min 179 W/m 14,2 C 13,8 C 22,5 km/h (4 Bft)
16.07.2019 10:54 16,1 C 87 % 1014,4 hPa 0,0 l/m 10,6 km/h (2 Bft) W-NW 293 0 min 172 W/m 13,9 C 14,1 C 22,5 km/h (4 Bft)
16.07.2019 10:57 16,1 C 88 % 1014,5 hPa 0,0 l/m 8,4 km/h (2 Bft) W 263 0 min 151 W/m 14,1 C 15,1 C 24,1 km/h (4 Bft)
16.07.2019 11:00 15,9 C 87 % 1014,5 hPa 0,0 l/m 10,5 km/h (2 Bft) W-NW 289 0 min 169 W/m 13,7 C 13,9 C 24,1 km/h (4 Bft)
16.07.2019 11:03 15,8 C 88 % 1014,5 hPa 0,0 l/m 9,1 km/h (2 Bft) NW 320 0 min 364 W/m 13,8 C 14,4 C 22,5 km/h (4 Bft)
16.07.2019 11:06 15,9 C 89 % 1014,4 hPa 0,0 l/m 6,4 km/h (2 Bft) NW 319 0 min 229 W/m 14,1 C 15,9 C 16,1 km/h (3 Bft)
16.07.2019 11:09 16,0 C 89 % 1014,5 hPa 0,0 l/m 7,3 km/h (2 Bft) W-NW 285 0 min 160 W/m 14,2 C 15,5 C 17,7 km/h (3 Bft)
16.07.2019 11:12 15,9 C 89 % 1014,4 hPa 0,0 l/m 10,6 km/h (2 Bft) W-NW 283 0 min 163 W/m 14,1 C 13,9 C 19,3 km/h (3 Bft)
16.07.2019 11:15 15,9 C 89 % 1014,5 hPa 0,0 l/m 10,7 km/h (2 Bft) W 267 0 min 206 W/m 14,1 C 13,8 C 22,5 km/h (4 Bft)
16.07.2019 11:18 15,8 C 89 % 1014,4 hPa 0,0 l/m 6,5 km/h (2 Bft) W-NW 288 0 min 294 W/m 14,0 C 15,8 C 16,1 km/h (3 Bft)
16.07.2019 11:21 15,8 C 89 % 1014,5 hPa 0,0 l/m 8,9 km/h (2 Bft) W 268 0 min 160 W/m 14,0 C 14,5 C 20,9 km/h (4 Bft)
16.07.2019 11:24 15,9 C 90 % 1014,6 hPa 0,0 l/m 6,4 km/h (2 Bft) W-NW 288 0 min 257 W/m 14,3 C 15,9 C 16,1 km/h (3 Bft)
16.07.2019 11:27 15,9 C 89 % 1014,5 hPa 0,0 l/m 5,7 km/h (2 Bft) W 270 0 min 279 W/m 14,1 C 15,9 C 19,3 km/h (3 Bft)
16.07.2019 11:30 16,1 C 89 % 1014,5 hPa 0,0 l/m 14,2 km/h (3 Bft) W 277 3 min 436 W/m 14,3 C 12,8 C 24,1 km/h (4 Bft)
16.07.2019 11:33 16,2 C 87 % 1014,5 hPa 0,0 l/m 9,0 km/h (2 Bft) W 281 0 min 283 W/m 14,0 C 14,9 C 17,7 km/h (3 Bft)
16.07.2019 11:36 16,3 C 87 % 1014,5 hPa 0,0 l/m 10,2 km/h (2 Bft) NW 308 0 min 202 W/m 14,1 C 14,5 C 20,9 km/h (4 Bft)
16.07.2019 11:39 16,3 C 87 % 1014,5 hPa 0,0 l/m 11,7 km/h (2 Bft) W 275 0 min 250 W/m 14,1 C 13,9 C 24,1 km/h (4 Bft)
16.07.2019 11:42 16,3 C 88 % 1014,5 hPa 0,0 l/m 7,3 km/h (2 Bft) NW 312 0 min 220 W/m 14,3 C 15,8 C 20,9 km/h (4 Bft)
16.07.2019 11:45 16,3 C 88 % 1014,5 hPa 0,0 l/m 6,4 km/h (2 Bft) W 278 0 min 292 W/m 14,3 C 16,3 C 19,3 km/h (3 Bft)
16.07.2019 11:48 16,1 C 89 % 1014,5 hPa 0,0 l/m 11,7 km/h (2 Bft) W-NW 290 0 min 341 W/m 14,3 C 13,7 C 24,1 km/h (4 Bft)
16.07.2019 11:51 16,0 C 89 % 1014,5 hPa 0,0 l/m 9,9 km/h (2 Bft) W 270 0 min 306 W/m 14,2 C 14,3 C 17,7 km/h (3 Bft)
16.07.2019 11:54 16,0 C 90 % 1014,5 hPa 0,0 l/m 8,8 km/h (2 Bft) W 272 0 min 295 W/m 14,4 C 14,8 C 19,3 km/h (3 Bft)
16.07.2019 11:57 16,1 C 90 % 1014,5 hPa 0,0 l/m 10,7 km/h (2 Bft) W 264 0 min 329 W/m 14,5 C 14,0 C 24,1 km/h (4 Bft)
16.07.2019 12:00 16,1 C 89 % 1014,6 hPa 0,0 l/m 13,6 km/h (3 Bft) W-NW 296 0 min 290 W/m 14,3 C 13,0 C 24,1 km/h (4 Bft)
16.07.2019 12:03 16,1 C 89 % 1014,5 hPa 0,0 l/m 10,7 km/h (2 Bft) NW 304 0 min 336 W/m 14,3 C 14,0 C 20,9 km/h (4 Bft)
16.07.2019 12:06 16,1 C 90 % 1014,5 hPa 0,0 l/m 9,0 km/h (2 Bft) W 271 0 min 336 W/m 14,5 C 14,8 C 16,1 km/h (3 Bft)
16.07.2019 12:09 16,1 C 89 % 1014,5 hPa 0,0 l/m 13,4 km/h (3 Bft) NW 313 0 min 290 W/m 14,3 C 13,0 C 24,1 km/h (4 Bft)
16.07.2019 12:12 16,1 C 88 % 1014,5 hPa 0,0 l/m 8,1 km/h (2 Bft) NW 304 0 min 274 W/m 14,1 C 15,2 C 16,1 km/h (3 Bft)
16.07.2019 12:15 16,2 C 88 % 1014,4 hPa 0,0 l/m 8,8 km/h (2 Bft) NW 313 3 min 482 W/m 14,2 C 15,0 C 17,7 km/h (3 Bft)
16.07.2019 12:18 16,6 C 86 % 1014,6 hPa 0,0 l/m 13,0 km/h (3 Bft) W 266 3 min 466 W/m 14,2 C 13,8 C 20,9 km/h (4 Bft)
16.07.2019 12:21 16,7 C 85 % 1014,6 hPa 0,0 l/m 11,8 km/h (2 Bft) W-NW 294 0 min 353 W/m 14,2 C 14,3 C 22,5 km/h (4 Bft)
16.07.2019 12:24 16,7 C 84 % 1014,6 hPa 0,0 l/m 11,5 km/h (2 Bft) W-NW 302 0 min 322 W/m 14,0 C 14,4 C 20,9 km/h (4 Bft)
16.07.2019 12:27 16,7 C 84 % 1014,6 hPa 0,0 l/m 8,2 km/h (2 Bft) W 273 0 min 425 W/m 14,0 C 15,8 C 19,3 km/h (3 Bft)
16.07.2019 12:30 17,0 C 84 % 1014,6 hPa 0,0 l/m 6,7 km/h (2 Bft) W-NW 295 0 min 299 W/m 14,3 C 16,9 C 14,5 km/h (3 Bft)
16.07.2019 12:33 16,9 C 83 % 1014,7 hPa 0,0 l/m 11,9 km/h (2 Bft) W 263 0 min 341 W/m 14,0 C 14,5 C 19,3 km/h (3 Bft)
16.07.2019 12:36 16,9 C 84 % 1014,6 hPa 0,0 l/m 10,4 km/h (2 Bft) W 279 0 min 272 W/m 14,2 C 15,1 C 22,5 km/h (4 Bft)
16.07.2019 12:39 16,8 C 84 % 1014,7 hPa 0,0 l/m 13,6 km/h (3 Bft) NW 323 0 min 272 W/m 14,1 C 13,8 C 22,5 km/h (4 Bft)
16.07.2019 12:42 16,6 C 84 % 1014,7 hPa 0,0 l/m 13,7 km/h (3 Bft) W 278 0 min 359 W/m 13,9 C 13,5 C 25,7 km/h (4 Bft)
16.07.2019 12:45 16,5 C 84 % 1014,6 hPa 0,0 l/m 15,9 km/h (3 Bft) W 279 3 min 589 W/m 13,8 C 12,7 C 29,0 km/h (5 Bft)
16.07.2019 12:48 16,7 C 84 % 1014,6 hPa 0,0 l/m 14,6 km/h (3 Bft) W 261 3 min 452 W/m 14,0 C 13,4 C 24,1 km/h (4 Bft)
16.07.2019 12:51 16,9 C 84 % 1014,6 hPa 0,0 l/m 11,7 km/h (2 Bft) W-NW 297 0 min 295 W/m 14,2 C 14,6 C 24,1 km/h (4 Bft)
16.07.2019 12:54 16,8 C 82 % 1014,7 hPa 0,0 l/m 17,0 km/h (3 Bft) W 276 0 min 329 W/m 13,7 C 12,8 C 27,4 km/h (5 Bft)
16.07.2019 12:57 16,7 C 83 % 1014,6 hPa 0,0 l/m 16,4 km/h (3 Bft) W-NW 287 0 min 295 W/m 13,8 C 12,9 C 29,0 km/h (5 Bft)
16.07.2019 13:00 16,6 C 83 % 1014,7 hPa 0,0 l/m 14,3 km/h (3 Bft) W 260 0 min 262 W/m 13,7 C 13,3 C 24,1 km/h (4 Bft)
16.07.2019 13:03 16,6 C 83 % 1014,6 hPa 0,0 l/m 11,8 km/h (2 Bft) W-SW 257 0 min 213 W/m 13,7 C 14,2 C 20,9 km/h (4 Bft)
16.07.2019 13:06 16,5 C 84 % 1014,7 hPa 0,0 l/m 12,1 km/h (2 Bft) SW 218 0 min 260 W/m 13,8 C 14,0 C 22,5 km/h (4 Bft)
16.07.2019 13:09 16,6 C 84 % 1014,7 hPa 0,0 l/m 11,2 km/h (2 Bft) NW 324 0 min 248 W/m 13,9 C 14,4 C 20,9 km/h (4 Bft)
16.07.2019 13:12 16,6 C 85 % 1014,7 hPa 0,0 l/m 13,0 km/h (3 Bft) W 281 0 min 274 W/m 14,1 C 13,8 C 20,9 km/h (4 Bft)
16.07.2019 13:15 16,4 C 85 % 1014,7 hPa 0,0 l/m 13,8 km/h (3 Bft) W-SW 254 0 min 285 W/m 13,9 C 13,3 C 20,9 km/h (4 Bft)
16.07.2019 13:18 16,4 C 85 % 1014,7 hPa 0,0 l/m 9,8 km/h (2 Bft) W-NW 296 3 min 510 W/m 13,9 C 14,7 C 19,3 km/h (3 Bft)
16.07.2019 13:21 16,7 C 85 % 1014,8 hPa 0,0 l/m 12,3 km/h (2 Bft) W 274 0 min 427 W/m 14,2 C 14,1 C 24,1 km/h (4 Bft)
16.07.2019 13:24 16,8 C 83 % 1014,8 hPa 0,0 l/m 9,9 km/h (2 Bft) W-NW 302 0 min 313 W/m 13,9 C 15,1 C 25,7 km/h (4 Bft)
16.07.2019 13:27 16,8 C 82 % 1014,8 hPa 0,0 l/m 10,2 km/h (2 Bft) W 277 0 min 267 W/m 13,7 C 15,0 C 20,9 km/h (4 Bft)
16.07.2019 13:30 16,8 C 82 % 1014,8 hPa 0,0 l/m 10,1 km/h (2 Bft) W 275 0 min 325 W/m 13,7 C 15,1 C 20,9 km/h (4 Bft)
16.07.2019 13:33 16,9 C 81 % 1014,8 hPa 0,0 l/m 11,8 km/h (2 Bft) W-NW 301 0 min 288 W/m 13,6 C 14,5 C 20,9 km/h (4 Bft)
16.07.2019 13:36 16,8 C 81 % 1014,8 hPa 0,0 l/m 10,8 km/h (2 Bft) NW 309 0 min 241 W/m 13,5 C 14,8 C 19,3 km/h (3 Bft)
16.07.2019 13:39 16,8 C 81 % 1014,8 hPa 0,0 l/m 11,3 km/h (2 Bft) W 259 0 min 258 W/m 13,5 C 14,6 C 17,7 km/h (3 Bft)
16.07.2019 13:42 16,8 C 81 % 1014,8 hPa 0,0 l/m 10,3 km/h (2 Bft) W-SW 246 0 min 387 W/m 13,5 C 15,0 C 24,1 km/h (4 Bft)
16.07.2019 13:45 16,8 C 81 % 1014,8 hPa 0,0 l/m 14,3 km/h (3 Bft) W 273 0 min 329 W/m 13,5 C 13,6 C 25,7 km/h (4 Bft)
16.07.2019 13:48 16,8 C 81 % 1014,7 hPa 0,0 l/m 12,3 km/h (2 Bft) W-NW 290 0 min 345 W/m 13,5 C 14,2 C 22,5 km/h (4 Bft)
16.07.2019 13:51 16,9 C 81 % 1014,8 hPa 0,0 l/m 8,8 km/h (2 Bft) N-NW 328 0 min 383 W/m 13,6 C 15,7 C 17,7 km/h (3 Bft)
16.07.2019 13:54 17,0 C 81 % 1014,8 hPa 0,0 l/m 9,6 km/h (2 Bft) W-NW 300 0 min 264 W/m 13,7 C 15,5 C 22,5 km/h (4 Bft)
16.07.2019 13:57 16,9 C 80 % 1014,7 hPa 0,0 l/m 14,5 km/h (3 Bft) W 273 0 min 262 W/m 13,4 C 13,6 C 27,4 km/h (5 Bft)
16.07.2019 14:00 16,8 C 81 % 1014,8 hPa 0,0 l/m 12,4 km/h (2 Bft) W-SW 252 0 min 292 W/m 13,5 C 14,2 C 25,7 km/h (4 Bft)
16.07.2019 14:03 16,8 C 80 % 1014,7 hPa 0,0 l/m 13,5 km/h (3 Bft) W 281 0 min 353 W/m 13,3 C 13,8 C 22,5 km/h (4 Bft)
16.07.2019 14:06 17,0 C 80 % 1014,7 hPa 0,0 l/m 10,1 km/h (2 Bft) W 275 0 min 336 W/m 13,5 C 15,3 C 17,7 km/h (3 Bft)
16.07.2019 14:09 17,2 C 79 % 1014,7 hPa 0,0 l/m 14,3 km/h (3 Bft) W 267 0 min 450 W/m 13,5 C 14,1 C 22,5 km/h (4 Bft)
16.07.2019 14:12 17,2 C 78 % 1014,8 hPa 0,0 l/m 12,0 km/h (2 Bft) NW 321 0 min 287 W/m 13,3 C 14,8 C 27,4 km/h (5 Bft)
16.07.2019 14:15 17,2 C 79 % 1014,8 hPa 0,0 l/m 8,5 km/h (2 Bft) W-NW 303 0 min 304 W/m 13,5 C 16,2 C 19,3 km/h (3 Bft)
16.07.2019 14:18 17,2 C 79 % 1014,7 hPa 0,0 l/m 8,2 km/h (2 Bft) NW 319 0 min 350 W/m 13,5 C 16,3 C 17,7 km/h (3 Bft)
16.07.2019 14:21 17,2 C 79 % 1014,7 hPa 0,0 l/m 10,2 km/h (2 Bft) W 271 0 min 352 W/m 13,5 C 15,5 C 19,3 km/h (3 Bft)
16.07.2019 14:24 17,2 C 79 % 1014,7 hPa 0,0 l/m 6,7 km/h (2 Bft) NW 306 0 min 309 W/m 13,5 C 17,1 C 12,9 km/h (3 Bft)
16.07.2019 14:27 17,3 C 80 % 1014,8 hPa 0,0 l/m 9,2 km/h (2 Bft) N-NW 336 0 min 281 W/m 13,8 C 16,0 C 20,9 km/h (4 Bft)
16.07.2019 14:30 17,2 C 79 % 1014,8 hPa 0,0 l/m 9,5 km/h (2 Bft) W 266 0 min 299 W/m 13,5 C 15,8 C 19,3 km/h (3 Bft)
16.07.2019 14:33 17,2 C 79 % 1014,7 hPa 0,0 l/m 7,4 km/h (2 Bft) W 267 0 min 279 W/m 13,5 C 16,7 C 17,7 km/h (3 Bft)
16.07.2019 14:36 17,2 C 79 % 1014,8 hPa 0,0 l/m 10,3 km/h (2 Bft) W 266 0 min 318 W/m 13,5 C 15,4 C 17,7 km/h (3 Bft)
16.07.2019 14:39 17,2 C 80 % 1014,9 hPa 0,0 l/m 9,5 km/h (2 Bft) N-NW 327 0 min 306 W/m 13,7 C 15,8 C 24,1 km/h (4 Bft)
16.07.2019 14:42 17,2 C 80 % 1015,0 hPa 0,0 l/m 8,6 km/h (2 Bft) W 267 0 min 257 W/m 13,7 C 16,1 C 19,3 km/h (3 Bft)
16.07.2019 14:45 17,1 C 79 % 1015,0 hPa 0,0 l/m 13,1 km/h (3 Bft) W 272 0 min 269 W/m 13,4 C 14,3 C 24,1 km/h (4 Bft)
16.07.2019 14:48 16,9 C 80 % 1015,0 hPa 0,0 l/m 8,5 km/h (2 Bft) W 259 0 min 192 W/m 13,4 C 15,9 C 27,4 km/h (5 Bft)
16.07.2019 14:51 16,8 C 80 % 1015,0 hPa 0,0 l/m 10,2 km/h (2 Bft) N 355 0 min 188 W/m 13,3 C 15,0 C 19,3 km/h (3 Bft)
16.07.2019 14:54 16,7 C 80 % 1015,0 hPa 0,0 l/m 10,6 km/h (2 Bft) W 274 0 min 244 W/m 13,2 C 14,8 C 22,5 km/h (4 Bft)
16.07.2019 14:57 16,7 C 80 % 1015,0 hPa 0,0 l/m 8,4 km/h (2 Bft) W-NW 303 0 min 200 W/m 13,2 C 15,7 C 20,9 km/h (4 Bft)
16.07.2019 15:00 16,7 C 81 % 1015,1 hPa 0,0 l/m 12,9 km/h (3 Bft) W-NW 284 0 min 190 W/m 13,4 C 13,9 C 27,4 km/h (5 Bft)
16.07.2019 15:03 16,7 C 81 % 1015,0 hPa 0,0 l/m 8,8 km/h (2 Bft) W 275 0 min 181 W/m 13,4 C 15,5 C 17,7 km/h (3 Bft)
16.07.2019 15:06 16,6 C 82 % 1015,0 hPa 0,0 l/m 13,1 km/h (3 Bft) W-SW 241 0 min 137 W/m 13,5 C 13,7 C 22,5 km/h (4 Bft)
16.07.2019 15:09 16,5 C 82 % 1015,0 hPa 0,0 l/m 9,4 km/h (2 Bft) NW 326 0 min 158 W/m 13,4 C 15,0 C 29,0 km/h (5 Bft)
16.07.2019 15:12 16,5 C 83 % 1015,0 hPa 0,0 l/m 7,6 km/h (2 Bft) W-NW 287 0 min 144 W/m 13,6 C 15,9 C 20,9 km/h (4 Bft)
16.07.2019 15:15 16,6 C 83 % 1015,1 hPa 0,0 l/m 7,7 km/h (2 Bft) W-NW 303 0 min 185 W/m 13,7 C 15,9 C 19,3 km/h (3 Bft)
16.07.2019 15:18 16,6 C 83 % 1015,0 hPa 0,0 l/m 10,8 km/h (2 Bft) NW 322 0 min 127 W/m 13,7 C 14,6 C 19,3 km/h (3 Bft)
16.07.2019 15:21 16,6 C 82 % 1015,1 hPa 0,0 l/m 7,0 km/h (2 Bft) W-NW 302 0 min 134 W/m 13,5 C 16,3 C 16,1 km/h (3 Bft)
16.07.2019 15:24 16,4 C 82 % 1015,1 hPa 0,0 l/m 9,7 km/h (2 Bft) W 265 0 min 183 W/m 13,3 C 14,8 C 25,7 km/h (4 Bft)
16.07.2019 15:27 16,3 C 82 % 1015,0 hPa 0,0 l/m 13,2 km/h (3 Bft) SW 232 0 min 163 W/m 13,2 C 13,3 C 27,4 km/h (5 Bft)
16.07.2019 15:30 16,3 C 82 % 1015,0 hPa 0,0 l/m 8,5 km/h (2 Bft) W-NW 285 0 min 169 W/m 13,2 C 15,2 C 16,1 km/h (3 Bft)
16.07.2019 15:33 16,4 C 82 % 1015,0 hPa 0,0 l/m 8,7 km/h (2 Bft) W-NW 290 0 min 165 W/m 13,3 C 15,2 C 17,7 km/h (3 Bft)
16.07.2019 15:36 16,4 C 82 % 1015,0 hPa 0,0 l/m 6,8 km/h (2 Bft) W 275 0 min 148 W/m 13,3 C 16,2 C 16,1 km/h (3 Bft)
16.07.2019 15:39 16,4 C 82 % 1015,0 hPa 0,0 l/m 9,7 km/h (2 Bft) W 269 0 min 239 W/m 13,3 C 14,8 C 19,3 km/h (3 Bft)
16.07.2019 15:42 16,5 C 81 % 1015,1 hPa 0,0 l/m 8,9 km/h (2 Bft) W 259 0 min 336 W/m 13,2 C 15,3 C 22,5 km/h (4 Bft)
16.07.2019 15:45 16,7 C 80 % 1015,1 hPa 0,0 l/m 11,1 km/h (2 Bft) NW 311 0 min 258 W/m 13,2 C 14,6 C 22,5 km/h (4 Bft)
16.07.2019 15:48 16,7 C 79 % 1015,1 hPa 0,0 l/m 11,3 km/h (2 Bft) NW 317 0 min 207 W/m 13,0 C 14,5 C 22,5 km/h (4 Bft)
16.07.2019 15:51 16,7 C 80 % 1015,1 hPa 0,0 l/m 10,5 km/h (2 Bft) W-SW 257 0 min 260 W/m 13,2 C 14,8 C 22,5 km/h (4 Bft)
16.07.2019 15:54 16,7 C 79 % 1015,1 hPa 0,0 l/m 6,9 km/h (2 Bft) W-SW 254 0 min 230 W/m 13,0 C 16,4 C 17,7 km/h (3 Bft)
16.07.2019 15:57 16,7 C 79 % 1015,1 hPa 0,0 l/m 10,8 km/h (2 Bft) W-SW 244 0 min 193 W/m 13,0 C 14,7 C 19,3 km/h (3 Bft)
16.07.2019 16:00 16,6 C 80 % 1015,1 hPa 0,0 l/m 11,4 km/h (2 Bft) W-SW 242 0 min 211 W/m 13,1 C 14,3 C 22,5 km/h (4 Bft)
16.07.2019 16:03 16,5 C 80 % 1015,1 hPa 0,0 l/m 11,8 km/h (2 Bft) W 275 0 min 272 W/m 13,0 C 14,1 C 25,7 km/h (4 Bft)
16.07.2019 16:06 16,5 C 80 % 1015,1 hPa 0,0 l/m 13,7 km/h (3 Bft) W-SW 249 0 min 260 W/m 13,0 C 13,4 C 22,5 km/h (4 Bft)
16.07.2019 16:09 16,5 C 80 % 1015,1 hPa 0,0 l/m 11,5 km/h (2 Bft) W-NW 298 0 min 253 W/m 13,0 C 14,2 C 24,1 km/h (4 Bft)
16.07.2019 16:12 16,6 C 79 % 1015,1 hPa 0,0 l/m 13,4 km/h (3 Bft) W 270 0 min 255 W/m 12,9 C 13,6 C 22,5 km/h (4 Bft)
16.07.2019 16:15 16,7 C 80 % 1015,1 hPa 0,0 l/m 4,7 km/h (1 Bft) NW 324 0 min 204 W/m 13,2 C 16,7 C 16,1 km/h (3 Bft)
16.07.2019 16:18 16,7 C 80 % 1015,1 hPa 0,0 l/m 6,4 km/h (2 Bft) W-NW 291 0 min 188 W/m 13,2 C 16,7 C 12,9 km/h (3 Bft)
16.07.2019 16:21 16,6 C 80 % 1015,0 hPa 0,0 l/m 10,5 km/h (2 Bft) W-NW 298 0 min 192 W/m 13,1 C 14,7 C 20,9 km/h (4 Bft)
16.07.2019 16:24 16,6 C 81 % 1015,0 hPa 0,0 l/m 8,4 km/h (2 Bft) W 279 0 min 183 W/m 13,3 C 15,6 C 17,7 km/h (3 Bft)
16.07.2019 16:27 16,6 C 81 % 1015,1 hPa 0,0 l/m 10,3 km/h (2 Bft) W 277 0 min 155 W/m 13,3 C 14,8 C 20,9 km/h (4 Bft)
16.07.2019 16:30 16,5 C 81 % 1015,0 hPa 0,0 l/m 8,3 km/h (2 Bft) W-NW 284 0 min 179 W/m 13,2 C 15,5 C 19,3 km/h (3 Bft)
16.07.2019 16:33 16,6 C 81 % 1015,0 hPa 0,0 l/m 11,4 km/h (2 Bft) W 279 0 min 207 W/m 13,3 C 14,3 C 19,3 km/h (3 Bft)
16.07.2019 16:36 16,6 C 79 % 1015,1 hPa 0,0 l/m 12,6 km/h (3 Bft) W-NW 288 0 min 213 W/m 12,9 C 13,9 C 22,5 km/h (4 Bft)
16.07.2019 16:39 16,6 C 79 % 1015,1 hPa 0,0 l/m 9,7 km/h (2 Bft) W 267 0 min 197 W/m 12,9 C 15,0 C 22,5 km/h (4 Bft)
16.07.2019 16:42 16,7 C 79 % 1015,1 hPa 0,0 l/m 8,7 km/h (2 Bft) W 269 0 min 185 W/m 13,0 C 15,6 C 17,7 km/h (3 Bft)
16.07.2019 16:45 16,6 C 79 % 1015,1 hPa 0,0 l/m 8,9 km/h (2 Bft) W 278 0 min 197 W/m 12,9 C 15,4 C 17,7 km/h (3 Bft)
16.07.2019 16:48 16,6 C 79 % 1015,1 hPa 0,0 l/m 7,2 km/h (2 Bft) W-NW 282 0 min 211 W/m 12,9 C 16,2 C 16,1 km/h (3 Bft)
16.07.2019 16:51 16,6 C 79 % 1015,1 hPa 0,0 l/m 8,8 km/h (2 Bft) W-NW 287 0 min 178 W/m 12,9 C 15,4 C 19,3 km/h (3 Bft)
16.07.2019 16:54 16,6 C 79 % 1015,1 hPa 0,0 l/m 9,1 km/h (2 Bft) N-NW 334 0 min 149 W/m 12,9 C 15,3 C 14,5 km/h (3 Bft)
16.07.2019 16:57 16,6 C 80 % 1015,1 hPa 0,0 l/m 9,6 km/h (2 Bft) W-NW 290 0 min 137 W/m 13,1 C 15,1 C 24,1 km/h (4 Bft)
16.07.2019 17:00 16,4 C 80 % 1015,0 hPa 0,0 l/m 9,7 km/h (2 Bft) N-NW 332 0 min 114 W/m 12,9 C 14,8 C 20,9 km/h (4 Bft)
16.07.2019 17:03 16,3 C 80 % 1015,1 hPa 0,0 l/m 8,8 km/h (2 Bft) NW 315 0 min 141 W/m 12,8 C 15,1 C 17,7 km/h (3 Bft)
16.07.2019 17:06 16,3 C 81 % 1015,1 hPa 0,0 l/m 7,5 km/h (2 Bft) W 273 0 min 162 W/m 13,0 C 15,7 C 19,3 km/h (3 Bft)
16.07.2019 17:09 16,3 C 81 % 1015,1 hPa 0,0 l/m 7,5 km/h (2 Bft) NW 315 0 min 144 W/m 13,0 C 15,7 C 16,1 km/h (3 Bft)
16.07.2019 17:12 16,4 C 81 % 1015,1 hPa 0,0 l/m 6,8 km/h (2 Bft) NW 306 0 min 135 W/m 13,1 C 16,2 C 14,5 km/h (3 Bft)
16.07.2019 17:15 16,3 C 81 % 1015,1 hPa 0,0 l/m 6,5 km/h (2 Bft) W-NW 294 0 min 156 W/m 13,0 C 16,3 C 12,9 km/h (3 Bft)
16.07.2019 17:18 16,4 C 81 % 1015,1 hPa 0,0 l/m 8,6 km/h (2 Bft) W-NW 296 0 min 144 W/m 13,1 C 15,3 C 16,1 km/h (3 Bft)
16.07.2019 17:21 16,3 C 80 % 1015,1 hPa 0,0 l/m 8,1 km/h (2 Bft) W-NW 302 0 min 148 W/m 12,8 C 15,4 C 16,1 km/h (3 Bft)
16.07.2019 17:24 16,3 C 81 % 1015,0 hPa 0,0 l/m 8,9 km/h (2 Bft) W-NW 292 0 min 169 W/m 13,0 C 15,0 C 17,7 km/h (3 Bft)
16.07.2019 17:27 16,4 C 81 % 1015,1 hPa 0,0 l/m 9,3 km/h (2 Bft) N-NW 343 0 min 155 W/m 13,1 C 15,0 C 17,7 km/h (3 Bft)
16.07.2019 17:30 16,4 C 80 % 1015,1 hPa 0,0 l/m 8,6 km/h (2 Bft) W 281 0 min 120 W/m 12,9 C 15,3 C 19,3 km/h (3 Bft)
16.07.2019 17:33 16,3 C 80 % 1015,1 hPa 0,0 l/m 9,7 km/h (2 Bft) W 269 0 min 167 W/m 12,8 C 14,7 C 20,9 km/h (4 Bft)
16.07.2019 17:36 16,3 C 79 % 1015,1 hPa 0,0 l/m 6,8 km/h (2 Bft) NW 319 0 min 153 W/m 12,6 C 16,1 C 17,7 km/h (3 Bft)
16.07.2019 17:39 16,3 C 80 % 1015,1 hPa 0,0 l/m 8,2 km/h (2 Bft) W 276 0 min 155 W/m 12,8 C 15,4 C 19,3 km/h (3 Bft)
16.07.2019 17:42 16,3 C 79 % 1015,1 hPa 0,0 l/m 13,6 km/h (3 Bft) W-SW 256 0 min 151 W/m 12,6 C 13,2 C 24,1 km/h (4 Bft)
16.07.2019 17:45 16,3 C 79 % 1015,1 hPa 0,0 l/m 9,9 km/h (2 Bft) W 281 0 min 172 W/m 12,6 C 14,6 C 19,3 km/h (3 Bft)
16.07.2019 17:48 16,4 C 79 % 1015,1 hPa 0,0 l/m 7,5 km/h (2 Bft) W 271 0 min 128 W/m 12,7 C 15,8 C 16,1 km/h (3 Bft)
16.07.2019 17:51 16,4 C 79 % 1015,1 hPa 0,0 l/m 9,9 km/h (2 Bft) W-NW 286 0 min 118 W/m 12,7 C 14,7 C 19,3 km/h (3 Bft)
16.07.2019 17:54 16,3 C 79 % 1015,0 hPa 0,0 l/m 12,0 km/h (2 Bft) W-NW 298 0 min 116 W/m 12,6 C 13,8 C 19,3 km/h (3 Bft)
16.07.2019 17:57 16,3 C 79 % 1015,0 hPa 0,0 l/m 11,9 km/h (2 Bft) W 279 0 min 148 W/m 12,6 C 13,8 C 20,9 km/h (4 Bft)
16.07.2019 18:00 16,3 C 80 % 1015,0 hPa 0,0 l/m 9,7 km/h (2 Bft) W 267 0 min 160 W/m 12,8 C 14,7 C 19,3 km/h (3 Bft)
16.07.2019 18:03 16,3 C 80 % 1015,0 hPa 0,0 l/m 10,6 km/h (2 Bft) W-NW 296 0 min 155 W/m 12,8 C 14,3 C 22,5 km/h (4 Bft)
16.07.2019 18:06 16,4 C 80 % 1015,0 hPa 0,0 l/m 9,7 km/h (2 Bft) W 271 0 min 148 W/m 12,9 C 14,8 C 19,3 km/h (3 Bft)
16.07.2019 18:09 16,3 C 80 % 1015,0 hPa 0,0 l/m 10,0 km/h (2 Bft) W 280 0 min 151 W/m 12,8 C 14,6 C 20,9 km/h (4 Bft)
16.07.2019 18:12 16,3 C 80 % 1015,1 hPa 0,0 l/m 8,8 km/h (2 Bft) W-SW 254 0 min 144 W/m 12,8 C 15,1 C 22,5 km/h (4 Bft)
16.07.2019 18:15 16,3 C 79 % 1015,0 hPa 0,0 l/m 10,5 km/h (2 Bft) W-NW 300 0 min 158 W/m 12,6 C 14,3 C 19,3 km/h (3 Bft)
16.07.2019 18:18 16,3 C 79 % 1015,1 hPa 0,0 l/m 9,2 km/h (2 Bft) NW 318 0 min 134 W/m 12,6 C 14,9 C 19,3 km/h (3 Bft)
16.07.2019 18:21 16,3 C 79 % 1015,1 hPa 0,0 l/m 7,6 km/h (2 Bft) W 262 0 min 137 W/m 12,6 C 15,7 C 14,5 km/h (3 Bft)
16.07.2019 18:24 16,3 C 80 % 1015,1 hPa 0,0 l/m 9,6 km/h (2 Bft) W 267 0 min 144 W/m 12,8 C 14,7 C 14,5 km/h (3 Bft)
16.07.2019 18:27 16,3 C 79 % 1015,1 hPa 0,0 l/m 6,4 km/h (2 Bft) W 279 0 min 144 W/m 12,6 C 16,3 C 14,5 km/h (3 Bft)
16.07.2019 18:30 16,3 C 79 % 1015,1 hPa 0,0 l/m 5,7 km/h (2 Bft) W-NW 283 0 min 144 W/m 12,6 C 16,3 C 12,9 km/h (3 Bft)
16.07.2019 18:33 16,4 C 79 % 1015,1 hPa 0,0 l/m 8,7 km/h (2 Bft) W-SW 249 0 min 120 W/m 12,7 C 15,2 C 17,7 km/h (3 Bft)
16.07.2019 18:36 16,3 C 79 % 1015,1 hPa 0,0 l/m 10,6 km/h (2 Bft) W 274 0 min 104 W/m 12,6 C 14,3 C 19,3 km/h (3 Bft)
16.07.2019 18:39 16,2 C 79 % 1015,2 hPa 0,0 l/m 9,8 km/h (2 Bft) W 280 0 min 91 W/m 12,6 C 14,5 C 19,3 km/h (3 Bft)
16.07.2019 18:42 16,2 C 80 % 1015,2 hPa 0,0 l/m 8,5 km/h (2 Bft) S-SW 211 0 min 84 W/m 12,7 C 15,1 C 20,9 km/h (4 Bft)
16.07.2019 18:45 16,2 C 81 % 1015,2 hPa 0,0 l/m 5,9 km/h (2 Bft) NW 320 0 min 104 W/m 12,9 C 16,2 C 19,3 km/h (3 Bft)
16.07.2019 18:48 16,3 C 81 % 1015,2 hPa 0,0 l/m 5,9 km/h (2 Bft) W-NW 290 0 min 109 W/m 13,0 C 16,3 C 16,1 km/h (3 Bft)
16.07.2019 18:51 16,3 C 80 % 1015,2 hPa 0,0 l/m 9,2 km/h (2 Bft) W-NW 287 0 min 70 W/m 12,8 C 14,9 C 17,7 km/h (3 Bft)
16.07.2019 18:54 16,2 C 80 % 1015,1 hPa 0,0 l/m 7,8 km/h (2 Bft) W-NW 296 0 min 81 W/m 12,7 C 15,5 C 17,7 km/h (3 Bft)
16.07.2019 18:57 16,2 C 81 % 1015,2 hPa 0,0 l/m 4,2 km/h (1 Bft) W-NW 296 0 min 88 W/m 12,9 C 16,2 C 8,0 km/h (2 Bft)
16.07.2019 19:00 16,2 C 81 % 1015,1 hPa 0,0 l/m 6,5 km/h (2 Bft) W-NW 296 0 min 107 W/m 12,9 C 16,2 C 12,9 km/h (3 Bft)
16.07.2019 19:03 16,2 C 81 % 1015,1 hPa 0,0 l/m 5,8 km/h (2 Bft) W-NW 302 0 min 105 W/m 12,9 C 16,2 C 12,9 km/h (3 Bft)
16.07.2019 19:06 16,2 C 80 % 1015,1 hPa 0,0 l/m 6,1 km/h (2 Bft) W 273 0 min 98 W/m 12,7 C 16,2 C 16,1 km/h (3 Bft)
16.07.2019 19:09 16,2 C 80 % 1015,1 hPa 0,0 l/m 5,9 km/h (2 Bft) W-NW 300 0 min 97 W/m 12,7 C 16,2 C 11,3 km/h (2 Bft)
16.07.2019 19:12 16,1 C 80 % 1015,1 hPa 0,0 l/m 9,1 km/h (2 Bft) NW 320 0 min 97 W/m 12,6 C 14,7 C 16,1 km/h (3 Bft)
16.07.2019 19:15 16,1 C 81 % 1015,1 hPa 0,0 l/m 6,6 km/h (2 Bft) N-NW 334 0 min 104 W/m 12,8 C 16,0 C 19,3 km/h (3 Bft)
16.07.2019 19:18 16,1 C 81 % 1015,1 hPa 0,0 l/m 6,6 km/h (2 Bft) NW 305 0 min 104 W/m 12,8 C 16,0 C 16,1 km/h (3 Bft)
16.07.2019 19:21 16,1 C 81 % 1015,0 hPa 0,0 l/m 8,2 km/h (2 Bft) W-NW 286 0 min 107 W/m 12,8 C 15,2 C 19,3 km/h (3 Bft)
16.07.2019 19:24 16,1 C 80 % 1015,1 hPa 0,0 l/m 9,5 km/h (2 Bft) W 281 0 min 113 W/m 12,6 C 14,6 C 16,1 km/h (3 Bft)
16.07.2019 19:27 16,0 C 80 % 1015,1 hPa 0,0 l/m 9,5 km/h (2 Bft) W-NW 291 0 min 104 W/m 12,5 C 14,4 C 19,3 km/h (3 Bft)
16.07.2019 19:30 16,0 C 80 % 1015,1 hPa 0,0 l/m 11,5 km/h (2 Bft) NW 306 0 min 93 W/m 12,5 C 13,6 C 17,7 km/h (3 Bft)
16.07.2019 19:33 15,9 C 79 % 1015,1 hPa 0,0 l/m 11,2 km/h (2 Bft) W 260 0 min 100 W/m 12,3 C 13,6 C 19,3 km/h (3 Bft)
16.07.2019 19:36 15,9 C 79 % 1015,1 hPa 0,0 l/m 10,8 km/h (2 Bft) W-NW 288 0 min 91 W/m 12,3 C 13,8 C 19,3 km/h (3 Bft)
16.07.2019 19:39 15,9 C 79 % 1015,0 hPa 0,0 l/m 9,7 km/h (2 Bft) W 274 0 min 105 W/m 12,3 C 14,2 C 20,9 km/h (4 Bft)
16.07.2019 19:42 15,9 C 79 % 1015,1 hPa 0,0 l/m 10,9 km/h (2 Bft) W-SW 254 0 min 62 W/m 12,3 C 13,7 C 22,5 km/h (4 Bft)
16.07.2019 19:45 15,8 C 79 % 1015,1 hPa 0,0 l/m 9,7 km/h (2 Bft) W 275 0 min 67 W/m 12,2 C 14,1 C 17,7 km/h (3 Bft)
16.07.2019 19:48 15,8 C 79 % 1015,1 hPa 0,0 l/m 9,8 km/h (2 Bft) W 271 0 min 51 W/m 12,2 C 14,1 C 14,5 km/h (3 Bft)
16.07.2019 19:51 15,7 C 79 % 1015,1 hPa 0,0 l/m 6,8 km/h (2 Bft) W 278 0 min 51 W/m 12,1 C 15,5 C 12,9 km/h (3 Bft)
16.07.2019 19:54 15,7 C 80 % 1015,1 hPa 0,0 l/m 11,1 km/h (2 Bft) W 275 0 min 51 W/m 12,3 C 13,4 C 17,7 km/h (3 Bft)
16.07.2019 19:57 15,7 C 80 % 1015,0 hPa 0,0 l/m 8,7 km/h (2 Bft) W 264 0 min 56 W/m 12,3 C 14,5 C 19,3 km/h (3 Bft)
16.07.2019 20:00 15,7 C 80 % 1015,0 hPa 0,0 l/m 11,8 km/h (2 Bft) W 279 0 min 67 W/m 12,3 C 13,2 C 20,9 km/h (4 Bft)
16.07.2019 20:03 15,7 C 81 % 1014,9 hPa 0,0 l/m 10,0 km/h (2 Bft) W-NW 293 0 min 63 W/m 12,4 C 13,9 C 20,9 km/h (4 Bft)
16.07.2019 20:06 15,8 C 81 % 1015,0 hPa 0,0 l/m 9,0 km/h (2 Bft) W 279 0 min 49 W/m 12,5 C 14,5 C 17,7 km/h (3 Bft)
16.07.2019 20:09 15,8 C 81 % 1014,9 hPa 0,0 l/m 6,2 km/h (2 Bft) W 278 0 min 51 W/m 12,5 C 15,8 C 14,5 km/h (3 Bft)
16.07.2019 20:12 15,8 C 82 % 1014,9 hPa 0,0 l/m 8,1 km/h (2 Bft) W 277 0 min 65 W/m 12,7 C 14,9 C 19,3 km/h (3 Bft)
16.07.2019 20:15 15,7 C 82 % 1015,0 hPa 0,0 l/m 6,4 km/h (2 Bft) W-NW 302 0 min 51 W/m 12,6 C 15,7 C 17,7 km/h (3 Bft)
16.07.2019 20:18 15,7 C 82 % 1015,0 hPa 0,0 l/m 10,0 km/h (2 Bft) W-NW 292 0 min 67 W/m 12,6 C 13,9 C 17,7 km/h (3 Bft)
16.07.2019 20:21 15,6 C 81 % 1015,0 hPa 0,0 l/m 8,9 km/h (2 Bft) W 273 0 min 39 W/m 12,3 C 14,3 C 17,7 km/h (3 Bft)
16.07.2019 20:24 15,5 C 81 % 1015,0 hPa 0,0 l/m 9,6 km/h (2 Bft) NW 313 0 min 51 W/m 12,3 C 13,8 C 19,3 km/h (3 Bft)
16.07.2019 20:27 15,5 C 81 % 1015,0 hPa 0,0 l/m 10,6 km/h (2 Bft) W-NW 284 0 min 44 W/m 12,3 C 13,4 C 17,7 km/h (3 Bft)
16.07.2019 20:30 15,5 C 81 % 1015,0 hPa 0,0 l/m 9,7 km/h (2 Bft) W 269 0 min 44 W/m 12,3 C 13,8 C 16,1 km/h (3 Bft)
16.07.2019 20:33 15,5 C 81 % 1015,1 hPa 0,0 l/m 6,1 km/h (2 Bft) W-NW 288 0 min 39 W/m 12,3 C 15,5 C 16,1 km/h (3 Bft)
16.07.2019 20:36 15,5 C 81 % 1015,1 hPa 0,0 l/m 6,0 km/h (2 Bft) W-NW 282 0 min 35 W/m 12,3 C 15,5 C 12,9 km/h (3 Bft)
16.07.2019 20:39 15,5 C 82 % 1015,1 hPa 0,0 l/m 10,5 km/h (2 Bft) W 278 0 min 30 W/m 12,4 C 13,5 C 17,7 km/h (3 Bft)
16.07.2019 20:42 15,5 C 82 % 1015,1 hPa 0,0 l/m 8,6 km/h (2 Bft) W 274 0 min 32 W/m 12,4 C 14,3 C 16,1 km/h (3 Bft)
16.07.2019 20:45 15,5 C 82 % 1015,1 hPa 0,0 l/m 7,3 km/h (2 Bft) W 267 0 min 28 W/m 12,4 C 15,0 C 12,9 km/h (3 Bft)
16.07.2019 20:48 15,4 C 82 % 1015,1 hPa 0,0 l/m 8,6 km/h (2 Bft) W 265 0 min 33 W/m 12,3 C 14,2 C 17,7 km/h (3 Bft)
16.07.2019 20:51 15,4 C 81 % 1015,1 hPa 0,0 l/m 8,0 km/h (2 Bft) SW 235 0 min 30 W/m 12,2 C 14,5 C 16,1 km/h (3 Bft)
16.07.2019 20:54 15,4 C 81 % 1015,1 hPa 0,0 l/m 7,2 km/h (2 Bft) W 278 0 min 23 W/m 12,2 C 15,0 C 16,1 km/h (3 Bft)
16.07.2019 20:57 15,3 C 81 % 1015,1 hPa 0,0 l/m 9,4 km/h (2 Bft) W 273 0 min 23 W/m 12,1 C 13,7 C 16,1 km/h (3 Bft)
16.07.2019 21:00 15,3 C 81 % 1015,1 hPa 0,0 l/m 9,6 km/h (2 Bft) W 275 0 min 21 W/m 12,1 C 13,6 C 16,1 km/h (3 Bft)
16.07.2019 21:03 15,4 C 82 % 1015,1 hPa 0,0 l/m 7,9 km/h (2 Bft) W 260 0 min 23 W/m 12,3 C 14,6 C 14,5 km/h (3 Bft)
16.07.2019 21:06 15,4 C 82 % 1015,0 hPa 0,0 l/m 7,1 km/h (2 Bft) NW 319 0 min 28 W/m 12,3 C 15,0 C 14,5 km/h (3 Bft)
16.07.2019 21:09 15,4 C 82 % 1015,0 hPa 0,0 l/m 6,7 km/h (2 Bft) W-NW 295 0 min 23 W/m 12,3 C 15,2 C 16,1 km/h (3 Bft)
16.07.2019 21:12 15,4 C 82 % 1015,0 hPa 0,0 l/m 7,8 km/h (2 Bft) W-NW 296 0 min 23 W/m 12,3 C 14,6 C 16,1 km/h (3 Bft)
16.07.2019 21:15 15,4 C 82 % 1015,0 hPa 0,0 l/m 8,2 km/h (2 Bft) W-NW 295 0 min 21 W/m 12,3 C 14,4 C 16,1 km/h (3 Bft)
16.07.2019 21:18 15,3 C 82 % 1015,1 hPa 0,0 l/m 5,9 km/h (2 Bft) W-NW 294 0 min 21 W/m 12,2 C 15,3 C 12,9 km/h (3 Bft)
16.07.2019 21:21 15,3 C 82 % 1015,1 hPa 0,0 l/m 8,6 km/h (2 Bft) W-NW 282 0 min 19 W/m 12,2 C 14,1 C 22,5 km/h (4 Bft)
16.07.2019 21:24 15,2 C 82 % 1015,0 hPa 0,0 l/m 7,1 km/h (2 Bft) NW 324 3 min 18 W/m 12,1 C 14,8 C 14,5 km/h (3 Bft)
16.07.2019 21:27 15,2 C 82 % 1015,0 hPa 0,0 l/m 8,7 km/h (2 Bft) W 276 0 min 14 W/m 12,1 C 14,0 C 17,7 km/h (3 Bft)
16.07.2019 21:30 15,2 C 82 % 1015,1 hPa 0,0 l/m 6,2 km/h (2 Bft) W 270 0 min 11 W/m 12,1 C 15,2 C 14,5 km/h (3 Bft)
16.07.2019 21:33 15,1 C 82 % 1015,1 hPa 0,0 l/m 7,8 km/h (2 Bft) W-NW 294 0 min 9 W/m 12,0 C 14,3 C 14,5 km/h (3 Bft)
16.07.2019 21:36 15,1 C 82 % 1015,1 hPa 0,0 l/m 7,7 km/h (2 Bft) W-NW 291 0 min 5 W/m 12,0 C 14,4 C 16,1 km/h (3 Bft)
16.07.2019 21:39 15,1 C 82 % 1015,1 hPa 0,0 l/m 4,4 km/h (1 Bft) W-NW 303 0 min 5 W/m 12,0 C 15,1 C 11,3 km/h (2 Bft)
16.07.2019 21:42 15,1 C 82 % 1015,1 hPa 0,0 l/m 8,5 km/h (2 Bft) W 276 0 min 0 W/m 12,0 C 13,9 C 12,9 km/h (3 Bft)
16.07.2019 21:45 15,1 C 82 % 1015,1 hPa 0,0 l/m 5,6 km/h (2 Bft) W 276 0 min 0 W/m 12,0 C 15,1 C 11,3 km/h (2 Bft)
16.07.2019 21:48 15,1 C 82 % 1015,1 hPa 0,0 l/m 5,4 km/h (2 Bft) W 277 0 min 0 W/m 12,0 C 15,1 C 9,7 km/h (2 Bft)
16.07.2019 21:51 15,1 C 82 % 1015,1 hPa 0,0 l/m 5,6 km/h (2 Bft) W 275 0 min 0 W/m 12,0 C 15,1 C 12,9 km/h (3 Bft)
16.07.2019 21:54 15,1 C 83 % 1015,1 hPa 0,0 l/m 6,5 km/h (2 Bft) W-SW 254 0 min 0 W/m 12,2 C 15,1 C 17,7 km/h (3 Bft)
16.07.2019 21:57 15,1 C 83 % 1015,1 hPa 0,0 l/m 8,2 km/h (2 Bft) W 271 0 min 0 W/m 12,2 C 14,1 C 16,1 km/h (3 Bft)
16.07.2019 22:00 15,1 C 83 % 1015,1 hPa 0,0 l/m 10,7 km/h (2 Bft) W-SW 253 0 min 0 W/m 12,2 C 12,9 C 20,9 km/h (4 Bft)
16.07.2019 22:03 15,0 C 83 % 1015,1 hPa 0,0 l/m 9,6 km/h (2 Bft) W 273 0 min 0 W/m 12,1 C 13,3 C 16,1 km/h (3 Bft)
16.07.2019 22:06 15,0 C 83 % 1015,1 hPa 0,0 l/m 5,8 km/h (2 Bft) W 259 0 min 0 W/m 12,1 C 15,0 C 14,5 km/h (3 Bft)
16.07.2019 22:09 15,0 C 83 % 1015,1 hPa 0,0 l/m 10,6 km/h (2 Bft) W-NW 283 0 min 0 W/m 12,1 C 12,9 C 17,7 km/h (3 Bft)
16.07.2019 22:12 14,9 C 83 % 1015,1 hPa 0,0 l/m 7,2 km/h (2 Bft) W 275 0 min 0 W/m 12,0 C 14,4 C 17,7 km/h (3 Bft)
16.07.2019 22:15 14,9 C 83 % 1015,1 hPa 0,0 l/m 8,6 km/h (2 Bft) W 274 0 min 0 W/m 12,0 C 13,7 C 14,5 km/h (3 Bft)
16.07.2019 22:18 14,9 C 83 % 1015,2 hPa 0,0 l/m 6,2 km/h (2 Bft) W 273 0 min 0 W/m 12,0 C 14,9 C 12,9 km/h (3 Bft)
16.07.2019 22:21 14,9 C 83 % 1015,1 hPa 0,0 l/m 5,8 km/h (2 Bft) W 264 0 min 0 W/m 12,0 C 14,9 C 14,5 km/h (3 Bft)
16.07.2019 22:24 14,9 C 83 % 1015,2 hPa 0,0 l/m 6,7 km/h (2 Bft) N-NW 331 0 min 0 W/m 12,0 C 14,7 C 14,5 km/h (3 Bft)
16.07.2019 22:27 14,9 C 83 % 1015,2 hPa 0,0 l/m 8,1 km/h (2 Bft) W-NW 300 0 min 0 W/m 12,0 C 13,9 C 17,7 km/h (3 Bft)
16.07.2019 22:30 14,9 C 83 % 1015,2 hPa 0,0 l/m 8,0 km/h (2 Bft) W-NW 286 0 min 0 W/m 12,0 C 14,0 C 17,7 km/h (3 Bft)
16.07.2019 22:33 14,9 C 83 % 1015,2 hPa 0,0 l/m 7,3 km/h (2 Bft) W-NW 294 0 min 0 W/m 12,0 C 14,4 C 17,7 km/h (3 Bft)
16.07.2019 22:36 14,9 C 83 % 1015,2 hPa 0,0 l/m 7,6 km/h (2 Bft) W 270 0 min 0 W/m 12,0 C 14,2 C 19,3 km/h (3 Bft)
16.07.2019 22:39 14,9 C 83 % 1015,2 hPa 0,0 l/m 5,1 km/h (1 Bft) W 261 0 min 0 W/m 12,0 C 14,9 C 12,9 km/h (3 Bft)
16.07.2019 22:42 14,9 C 83 % 1015,2 hPa 0,0 l/m 6,1 km/h (2 Bft) W 279 0 min 0 W/m 12,0 C 14,9 C 11,3 km/h (2 Bft)
16.07.2019 22:45 14,9 C 83 % 1015,2 hPa 0,0 l/m 5,2 km/h (1 Bft) W 279 0 min 0 W/m 12,0 C 14,9 C 12,9 km/h (3 Bft)
16.07.2019 22:48 14,8 C 83 % 1015,2 hPa 0,0 l/m 7,2 km/h (2 Bft) W 269 0 min 0 W/m 11,9 C 14,3 C 12,9 km/h (3 Bft)
16.07.2019 22:51 14,8 C 83 % 1015,2 hPa 0,0 l/m 8,7 km/h (2 Bft) W 275 0 min 0 W/m 11,9 C 13,5 C 12,9 km/h (3 Bft)
16.07.2019 22:54 14,8 C 83 % 1015,2 hPa 0,0 l/m 6,8 km/h (2 Bft) W-NW 302 0 min 0 W/m 11,9 C 14,6 C 14,5 km/h (3 Bft)
16.07.2019 22:57 14,8 C 83 % 1015,2 hPa 0,0 l/m 5,6 km/h (2 Bft) W-NW 296 0 min 0 W/m 11,9 C 14,8 C 12,9 km/h (3 Bft)
16.07.2019 23:00 14,8 C 83 % 1015,2 hPa 0,0 l/m 9,3 km/h (2 Bft) NW 317 0 min 0 W/m 11,9 C 13,2 C 16,1 km/h (3 Bft)
16.07.2019 23:03 14,7 C 82 % 1015,2 hPa 0,0 l/m 6,5 km/h (2 Bft) W 267 0 min 0 W/m 11,7 C 14,7 C 20,9 km/h (4 Bft)
16.07.2019 23:06 14,7 C 82 % 1015,2 hPa 0,0 l/m 6,1 km/h (2 Bft) NW 304 0 min 0 W/m 11,7 C 14,7 C 14,5 km/h (3 Bft)
16.07.2019 23:09 14,7 C 82 % 1015,2 hPa 0,0 l/m 6,1 km/h (2 Bft) NW 310 0 min 0 W/m 11,7 C 14,7 C 14,5 km/h (3 Bft)
16.07.2019 23:12 14,7 C 82 % 1015,2 hPa 0,0 l/m 6,0 km/h (2 Bft) W-NW 289 0 min 0 W/m 11,7 C 14,7 C 16,1 km/h (3 Bft)
16.07.2019 23:15 14,7 C 82 % 1015,2 hPa 0,0 l/m 5,2 km/h (1 Bft) W-NW 298 0 min 0 W/m 11,7 C 14,7 C 11,3 km/h (2 Bft)
16.07.2019 23:18 14,7 C 82 % 1015,2 hPa 0,0 l/m 5,0 km/h (1 Bft) W-NW 296 0 min 0 W/m 11,7 C 14,7 C 12,9 km/h (3 Bft)
16.07.2019 23:21 14,7 C 82 % 1015,2 hPa 0,0 l/m 5,7 km/h (2 Bft) NW 312 0 min 0 W/m 11,7 C 14,7 C 16,1 km/h (3 Bft)
16.07.2019 23:24 14,7 C 82 % 1015,2 hPa 0,0 l/m 6,5 km/h (2 Bft) W-NW 294 0 min 0 W/m 11,7 C 14,7 C 12,9 km/h (3 Bft)
16.07.2019 23:27 14,6 C 82 % 1015,2 hPa 0,0 l/m 5,6 km/h (2 Bft) NW 315 0 min 0 W/m 11,6 C 14,6 C 12,9 km/h (3 Bft)
16.07.2019 23:30 14,6 C 82 % 1015,2 hPa 0,0 l/m 5,8 km/h (2 Bft) NW 318 0 min 0 W/m 11,6 C 14,6 C 14,5 km/h (3 Bft)
16.07.2019 23:33 14,6 C 82 % 1015,2 hPa 0,0 l/m 5,8 km/h (2 Bft) NW 323 0 min 0 W/m 11,6 C 14,6 C 12,9 km/h (3 Bft)
16.07.2019 23:36 14,6 C 82 % 1015,1 hPa 0,0 l/m 5,8 km/h (2 Bft) N-NW 329 0 min 0 W/m 11,6 C 14,6 C 14,5 km/h (3 Bft)
16.07.2019 23:39 14,6 C 82 % 1015,2 hPa 0,0 l/m 5,3 km/h (1 Bft) W-NW 294 0 min 0 W/m 11,6 C 14,6 C 12,9 km/h (3 Bft)
16.07.2019 23:42 14,6 C 83 % 1015,1 hPa 0,0 l/m 5,2 km/h (1 Bft) W-NW 300 0 min 0 W/m 11,7 C 14,6 C 12,9 km/h (3 Bft)
16.07.2019 23:45 14,7 C 83 % 1015,1 hPa 0,0 l/m 8,4 km/h (2 Bft) W 281 0 min 0 W/m 11,8 C 13,6 C 17,7 km/h (3 Bft)
16.07.2019 23:48 14,7 C 83 % 1015,1 hPa 0,0 l/m 9,3 km/h (2 Bft) NW 322 0 min 0 W/m 11,8 C 13,1 C 17,7 km/h (3 Bft)
16.07.2019 23:51 14,6 C 82 % 1015,1 hPa 0,0 l/m 6,5 km/h (2 Bft) NW 308 0 min 0 W/m 11,6 C 14,6 C 16,1 km/h (3 Bft)
16.07.2019 23:54 14,6 C 83 % 1015,2 hPa 0,0 l/m 7,6 km/h (2 Bft) W-NW 290 0 min 0 W/m 11,7 C 13,9 C 16,1 km/h (3 Bft)
16.07.2019 23:57 14,6 C 82 % 1015,2 hPa 0,0 l/m 8,0 km/h (2 Bft) W 274 0 min 0 W/m 11,6 C 13,7 C 14,5 km/h (3 Bft)
_ Min-Zeit 04:30 14:12 06:30 - 18:57 - - - - 23:27 07:06 18:57
Minimum _ 14,2 C 78 % 1013,9 hPa - 4,2 km/h (1 Bft) - - - - 11,6 C 10,6 C 8,0 km/h (2 Bft)
_ Max-Zeit 14:27 07:33 18:39 09:12 12:54 - - 08:54 12:45 09:45 14:24 01:09
Maximum _ 17,3 C 94 % 1015,2 hPa 0,2 l/m 17,0 km/h
W (3 Bft)
- - 3 min 589 W/m 14,6 C 17,1 C 29,0 km/h
W (5 Bft)
Durchschnitt _ 15,5 C 85 % 1014,7 hPa #0,2 l/m 9,4 km/h (2 Bft) W - #36 min. 166 W/m 13,0 C 14,0 C 19,4 km/h (3 Bft)
2019 Cux-Wetter.de -Die Nutzung der Wetterdaten nur mit ausdrcklicher Genehmigung